<?xml version="1.0" encoding="UTF-8" standalone="no" ?>
<gpx xmlns="http://www.topografix.com/GPX/1/1" xmlns:xsi="http://www.w3.org/2001/XMLSchema-instance" xsi:schemaLocation="http://www.topografix.com/GPX/1/1 http://www.topografix.com/GPX/1/1/gpx.xsd" version="1.1" creator="VisuGPX - https://www.visugpx.com">
  <metadata>
    <name>Ste Marie aux Mines - vers le Col</name>
  </metadata>
  <wpt lat="48.24091" lon="7.14241">
    <ele>613</ele>
    <name><![CDATA[Point de passage 1]]></name>
    <type><![CDATA[GENERIC]]></type>
  </wpt>
  <wpt lat="48.2409" lon="7.14241">
    <ele>613</ele>
    <name><![CDATA[Point de passage 2]]></name>
    <type><![CDATA[GENERIC]]></type>
  </wpt>
  <trk>
    <name><![CDATA[Journée côté col]]></name>
    <trkseg>
      <trkpt lat="48.24091" lon="7.14241">
        <ele>613</ele>
        <time>2026-07-09T09:59:24.000Z</time>
      </trkpt>
      <trkpt lat="48.24105" lon="7.14247">
        <ele>616</ele>
        <time>2026-07-09T10:00:12.000Z</time>
      </trkpt>
      <trkpt lat="48.24108" lon="7.14234">
        <ele>618</ele>
        <time>2026-07-09T10:00:43.000Z</time>
      </trkpt>
      <trkpt lat="48.24102" lon="7.14224">
        <ele>618</ele>
        <time>2026-07-09T10:00:53.000Z</time>
      </trkpt>
      <trkpt lat="48.24073" lon="7.14211">
        <ele>622</ele>
        <time>2026-07-09T10:02:09.000Z</time>
      </trkpt>
      <trkpt lat="48.24044" lon="7.14198">
        <ele>626</ele>
        <time>2026-07-09T10:03:25.000Z</time>
      </trkpt>
      <trkpt lat="48.24013" lon="7.14199">
        <ele>628</ele>
        <time>2026-07-09T10:04:21.000Z</time>
      </trkpt>
      <trkpt lat="48.23982" lon="7.14199">
        <ele>631</ele>
        <time>2026-07-09T10:05:27.000Z</time>
      </trkpt>
      <trkpt lat="48.23951" lon="7.14201">
        <ele>631</ele>
        <time>2026-07-09T10:06:02.000Z</time>
      </trkpt>
      <trkpt lat="48.23944" lon="7.14203">
        <ele>632</ele>
        <time>2026-07-09T10:06:21.000Z</time>
      </trkpt>
      <trkpt lat="48.23918" lon="7.14227">
        <ele>634</ele>
        <time>2026-07-09T10:07:17.000Z</time>
      </trkpt>
      <trkpt lat="48.23933" lon="7.14189">
        <ele>638</ele>
        <time>2026-07-09T10:08:32.000Z</time>
      </trkpt>
      <trkpt lat="48.23951" lon="7.1417">
        <ele>639</ele>
        <time>2026-07-09T10:09:07.000Z</time>
      </trkpt>
      <trkpt lat="48.23975" lon="7.14163">
        <ele>642</ele>
        <time>2026-07-09T10:10:06.000Z</time>
      </trkpt>
      <trkpt lat="48.24" lon="7.14156">
        <ele>645</ele>
        <time>2026-07-09T10:11:05.000Z</time>
      </trkpt>
      <trkpt lat="48.24028" lon="7.14141">
        <ele>649</ele>
        <time>2026-07-09T10:12:20.000Z</time>
      </trkpt>
      <trkpt lat="48.24056" lon="7.14127">
        <ele>654</ele>
        <time>2026-07-09T10:13:45.000Z</time>
      </trkpt>
      <trkpt lat="48.24074" lon="7.141">
        <ele>656</ele>
        <time>2026-07-09T10:14:35.000Z</time>
      </trkpt>
      <trkpt lat="48.24084" lon="7.14069">
        <ele>662</ele>
        <time>2026-07-09T10:16:03.000Z</time>
      </trkpt>
      <trkpt lat="48.24094" lon="7.14037">
        <ele>663</ele>
        <time>2026-07-09T10:16:40.000Z</time>
      </trkpt>
      <trkpt lat="48.24106" lon="7.14028">
        <ele>663</ele>
        <time>2026-07-09T10:16:56.000Z</time>
      </trkpt>
      <trkpt lat="48.24115" lon="7.14054">
        <ele>661</ele>
        <time>2026-07-09T10:17:19.000Z</time>
      </trkpt>
      <trkpt lat="48.24151" lon="7.13871">
        <ele>701</ele>
        <time>2026-07-09T10:26:36.000Z</time>
      </trkpt>
      <trkpt lat="48.2414" lon="7.13862">
        <ele>702</ele>
        <time>2026-07-09T10:27:01.000Z</time>
      </trkpt>
      <trkpt lat="48.24134" lon="7.13806">
        <ele>707</ele>
        <time>2026-07-09T10:28:36.000Z</time>
      </trkpt>
      <trkpt lat="48.24144" lon="7.13764">
        <ele>711</ele>
        <time>2026-07-09T10:29:51.000Z</time>
      </trkpt>
      <trkpt lat="48.24153" lon="7.13722">
        <ele>717</ele>
        <time>2026-07-09T10:31:26.000Z</time>
      </trkpt>
      <trkpt lat="48.24193" lon="7.13692">
        <ele>719</ele>
        <time>2026-07-09T10:32:38.000Z</time>
      </trkpt>
      <trkpt lat="48.24233" lon="7.13661">
        <ele>722</ele>
        <time>2026-07-09T10:34:00.000Z</time>
      </trkpt>
      <trkpt lat="48.24253" lon="7.1364">
        <ele>725</ele>
        <time>2026-07-09T10:34:58.000Z</time>
      </trkpt>
      <trkpt lat="48.24281" lon="7.13598">
        <ele>732</ele>
        <time>2026-07-09T10:36:56.000Z</time>
      </trkpt>
      <trkpt lat="48.24303" lon="7.13577">
        <ele>737</ele>
        <time>2026-07-09T10:38:17.000Z</time>
      </trkpt>
      <trkpt lat="48.24333" lon="7.1356">
        <ele>746</ele>
        <time>2026-07-09T10:40:26.000Z</time>
      </trkpt>
      <trkpt lat="48.2434" lon="7.13551">
        <ele>748</ele>
        <time>2026-07-09T10:40:57.000Z</time>
      </trkpt>
      <trkpt lat="48.24343" lon="7.1353">
        <ele>752</ele>
        <time>2026-07-09T10:41:54.000Z</time>
      </trkpt>
      <trkpt lat="48.24342" lon="7.13469">
        <ele>757</ele>
        <time>2026-07-09T10:43:32.000Z</time>
      </trkpt>
      <trkpt lat="48.24332" lon="7.13452">
        <ele>760</ele>
        <time>2026-07-09T10:44:20.000Z</time>
      </trkpt>
      <trkpt lat="48.24309" lon="7.13446">
        <ele>763</ele>
        <time>2026-07-09T10:45:18.000Z</time>
      </trkpt>
      <trkpt lat="48.24292" lon="7.13447">
        <ele>765</ele>
        <time>2026-07-09T10:45:58.000Z</time>
      </trkpt>
      <trkpt lat="48.24251" lon="7.13435">
        <ele>769</ele>
        <time>2026-07-09T10:47:27.000Z</time>
      </trkpt>
      <trkpt lat="48.24221" lon="7.13416">
        <ele>771</ele>
        <time>2026-07-09T10:48:25.000Z</time>
      </trkpt>
      <trkpt lat="48.24217" lon="7.13413">
        <ele>771</ele>
        <time>2026-07-09T10:48:30.000Z</time>
      </trkpt>
      <trkpt lat="48.24228" lon="7.13359">
        <ele>774</ele>
        <time>2026-07-09T10:49:44.000Z</time>
      </trkpt>
      <trkpt lat="48.24253" lon="7.13347">
        <ele>773</ele>
        <time>2026-07-09T10:50:15.000Z</time>
      </trkpt>
      <trkpt lat="48.24279" lon="7.13316">
        <ele>772</ele>
        <time>2026-07-09T10:50:52.000Z</time>
      </trkpt>
      <trkpt lat="48.243" lon="7.13301">
        <ele>771</ele>
        <time>2026-07-09T10:51:19.000Z</time>
      </trkpt>
      <trkpt lat="48.24316" lon="7.13286">
        <ele>771</ele>
        <time>2026-07-09T10:51:41.000Z</time>
      </trkpt>
      <trkpt lat="48.24334" lon="7.13282">
        <ele>771</ele>
        <time>2026-07-09T10:52:01.000Z</time>
      </trkpt>
      <trkpt lat="48.24336" lon="7.13296">
        <ele>771</ele>
        <time>2026-07-09T10:52:12.000Z</time>
      </trkpt>
      <trkpt lat="48.24355" lon="7.13296">
        <ele>772</ele>
        <time>2026-07-09T10:52:44.000Z</time>
      </trkpt>
      <trkpt lat="48.24367" lon="7.1333">
        <ele>774</ele>
        <time>2026-07-09T10:53:35.000Z</time>
      </trkpt>
      <trkpt lat="48.2438" lon="7.13364">
        <ele>776</ele>
        <time>2026-07-09T10:54:26.000Z</time>
      </trkpt>
      <trkpt lat="48.24395" lon="7.13391">
        <ele>777</ele>
        <time>2026-07-09T10:55:03.000Z</time>
      </trkpt>
      <trkpt lat="48.24417" lon="7.13421">
        <ele>782</ele>
        <time>2026-07-09T10:56:29.000Z</time>
      </trkpt>
      <trkpt lat="48.2444" lon="7.13452">
        <ele>788</ele>
        <time>2026-07-09T10:58:05.000Z</time>
      </trkpt>
      <trkpt lat="48.24463" lon="7.13472">
        <ele>794</ele>
        <time>2026-07-09T10:59:38.000Z</time>
      </trkpt>
      <trkpt lat="48.24485" lon="7.13486">
        <ele>800</ele>
        <time>2026-07-09T11:01:07.000Z</time>
      </trkpt>
      <trkpt lat="48.24504" lon="7.13543">
        <ele>794</ele>
        <time>2026-07-09T11:01:56.000Z</time>
      </trkpt>
      <trkpt lat="48.24528" lon="7.13576">
        <ele>790</ele>
        <time>2026-07-09T11:02:33.000Z</time>
      </trkpt>
      <trkpt lat="48.24553" lon="7.13608">
        <ele>788</ele>
        <time>2026-07-09T11:03:10.000Z</time>
      </trkpt>
      <trkpt lat="48.24577" lon="7.13641">
        <ele>784</ele>
        <time>2026-07-09T11:03:47.000Z</time>
      </trkpt>
      <trkpt lat="48.24599" lon="7.13661">
        <ele>785</ele>
        <time>2026-07-09T11:04:27.000Z</time>
      </trkpt>
      <trkpt lat="48.24622" lon="7.1368">
        <ele>788</ele>
        <time>2026-07-09T11:05:27.000Z</time>
      </trkpt>
      <trkpt lat="48.24641" lon="7.13701">
        <ele>787</ele>
        <time>2026-07-09T11:05:54.000Z</time>
      </trkpt>
      <trkpt lat="48.24659" lon="7.13722">
        <ele>787</ele>
        <time>2026-07-09T11:06:21.000Z</time>
      </trkpt>
      <trkpt lat="48.24689" lon="7.13749">
        <ele>790</ele>
        <time>2026-07-09T11:07:32.000Z</time>
      </trkpt>
      <trkpt lat="48.24719" lon="7.13776">
        <ele>789</ele>
        <time>2026-07-09T11:08:12.000Z</time>
      </trkpt>
      <trkpt lat="48.24751" lon="7.13818">
        <ele>794</ele>
        <time>2026-07-09T11:09:53.000Z</time>
      </trkpt>
      <trkpt lat="48.24784" lon="7.1386">
        <ele>792</ele>
        <time>2026-07-09T11:10:42.000Z</time>
      </trkpt>
      <trkpt lat="48.24806" lon="7.13893">
        <ele>795</ele>
        <time>2026-07-09T11:11:49.000Z</time>
      </trkpt>
      <trkpt lat="48.24829" lon="7.13926">
        <ele>795</ele>
        <time>2026-07-09T11:12:25.000Z</time>
      </trkpt>
      <trkpt lat="48.24851" lon="7.13959">
        <ele>796</ele>
        <time>2026-07-09T11:13:11.000Z</time>
      </trkpt>
      <trkpt lat="48.24864" lon="7.1399">
        <ele>797</ele>
        <time>2026-07-09T11:13:49.000Z</time>
      </trkpt>
      <trkpt lat="48.24877" lon="7.1402">
        <ele>796</ele>
        <time>2026-07-09T11:14:16.000Z</time>
      </trkpt>
      <trkpt lat="48.24895" lon="7.14079">
        <ele>799</ele>
        <time>2026-07-09T11:15:36.000Z</time>
      </trkpt>
      <trkpt lat="48.24902" lon="7.14129">
        <ele>800</ele>
        <time>2026-07-09T11:16:25.000Z</time>
      </trkpt>
      <trkpt lat="48.24908" lon="7.14193">
        <ele>802</ele>
        <time>2026-07-09T11:17:35.000Z</time>
      </trkpt>
      <trkpt lat="48.24918" lon="7.14238">
        <ele>803</ele>
        <time>2026-07-09T11:18:21.000Z</time>
      </trkpt>
      <trkpt lat="48.2494" lon="7.14281">
        <ele>801</ele>
        <time>2026-07-09T11:19:02.000Z</time>
      </trkpt>
      <trkpt lat="48.24958" lon="7.14306">
        <ele>803</ele>
        <time>2026-07-09T11:19:50.000Z</time>
      </trkpt>
      <trkpt lat="48.24975" lon="7.14332">
        <ele>803</ele>
        <time>2026-07-09T11:20:18.000Z</time>
      </trkpt>
      <trkpt lat="48.2499" lon="7.14349">
        <ele>803</ele>
        <time>2026-07-09T11:20:39.000Z</time>
      </trkpt>
      <trkpt lat="48.25009" lon="7.14362">
        <ele>804</ele>
        <time>2026-07-09T11:21:13.000Z</time>
      </trkpt>
      <trkpt lat="48.25022" lon="7.14364">
        <ele>804</ele>
        <time>2026-07-09T11:21:28.000Z</time>
      </trkpt>
      <trkpt lat="48.2504" lon="7.14362">
        <ele>804</ele>
        <time>2026-07-09T11:21:50.000Z</time>
      </trkpt>
      <trkpt lat="48.25069" lon="7.14322">
        <ele>805</ele>
        <time>2026-07-09T11:22:45.000Z</time>
      </trkpt>
      <trkpt lat="48.25084" lon="7.14285">
        <ele>807</ele>
        <time>2026-07-09T11:23:38.000Z</time>
      </trkpt>
      <trkpt lat="48.25093" lon="7.14246">
        <ele>808</ele>
        <time>2026-07-09T11:24:20.000Z</time>
      </trkpt>
      <trkpt lat="48.25103" lon="7.14206">
        <ele>809</ele>
        <time>2026-07-09T11:25:02.000Z</time>
      </trkpt>
      <trkpt lat="48.25118" lon="7.14176">
        <ele>808</ele>
        <time>2026-07-09T11:25:31.000Z</time>
      </trkpt>
      <trkpt lat="48.25143" lon="7.1415">
        <ele>809</ele>
        <time>2026-07-09T11:26:16.000Z</time>
      </trkpt>
      <trkpt lat="48.25168" lon="7.14124">
        <ele>810</ele>
        <time>2026-07-09T11:27:01.000Z</time>
      </trkpt>
      <trkpt lat="48.25192" lon="7.14099">
        <ele>810</ele>
        <time>2026-07-09T11:27:36.000Z</time>
      </trkpt>
      <trkpt lat="48.25211" lon="7.14057">
        <ele>813</ele>
        <time>2026-07-09T11:28:45.000Z</time>
      </trkpt>
      <trkpt lat="48.25229" lon="7.14015">
        <ele>813</ele>
        <time>2026-07-09T11:29:23.000Z</time>
      </trkpt>
      <trkpt lat="48.25243" lon="7.13975">
        <ele>813</ele>
        <time>2026-07-09T11:29:57.000Z</time>
      </trkpt>
      <trkpt lat="48.25258" lon="7.13936">
        <ele>816</ele>
        <time>2026-07-09T11:31:02.000Z</time>
      </trkpt>
      <trkpt lat="48.25273" lon="7.13897">
        <ele>818</ele>
        <time>2026-07-09T11:31:57.000Z</time>
      </trkpt>
      <trkpt lat="48.25269" lon="7.13912">
        <ele>817</ele>
        <time>2026-07-09T11:32:09.000Z</time>
      </trkpt>
      <trkpt lat="48.25273" lon="7.13897">
        <ele>818</ele>
        <time>2026-07-09T11:32:32.000Z</time>
      </trkpt>
      <trkpt lat="48.2528" lon="7.13897">
        <ele>819</ele>
        <time>2026-07-09T11:32:51.000Z</time>
      </trkpt>
      <trkpt lat="48.25307" lon="7.13942">
        <ele>821</ele>
        <time>2026-07-09T11:33:58.000Z</time>
      </trkpt>
      <trkpt lat="48.25333" lon="7.13988">
        <ele>822</ele>
        <time>2026-07-09T11:34:55.000Z</time>
      </trkpt>
      <trkpt lat="48.2536" lon="7.14034">
        <ele>823</ele>
        <time>2026-07-09T11:35:52.000Z</time>
      </trkpt>
      <trkpt lat="48.25387" lon="7.14079">
        <ele>822</ele>
        <time>2026-07-09T11:36:38.000Z</time>
      </trkpt>
      <trkpt lat="48.25414" lon="7.14125">
        <ele>825</ele>
        <time>2026-07-09T11:37:55.000Z</time>
      </trkpt>
      <trkpt lat="48.25444" lon="7.14162">
        <ele>826</ele>
        <time>2026-07-09T11:38:50.000Z</time>
      </trkpt>
      <trkpt lat="48.25474" lon="7.14199">
        <ele>827</ele>
        <time>2026-07-09T11:39:45.000Z</time>
      </trkpt>
      <trkpt lat="48.25506" lon="7.14226">
        <ele>826</ele>
        <time>2026-07-09T11:40:28.000Z</time>
      </trkpt>
      <trkpt lat="48.25529" lon="7.14223">
        <ele>825</ele>
        <time>2026-07-09T11:40:53.000Z</time>
      </trkpt>
      <trkpt lat="48.25558" lon="7.14213">
        <ele>827</ele>
        <time>2026-07-09T11:41:48.000Z</time>
      </trkpt>
      <trkpt lat="48.25587" lon="7.14203">
        <ele>829</ele>
        <time>2026-07-09T11:42:43.000Z</time>
      </trkpt>
      <trkpt lat="48.25608" lon="7.14201">
        <ele>833</ele>
        <time>2026-07-09T11:43:49.000Z</time>
      </trkpt>
      <trkpt lat="48.2563" lon="7.14218">
        <ele>832</ele>
        <time>2026-07-09T11:44:17.000Z</time>
      </trkpt>
      <trkpt lat="48.25657" lon="7.14248">
        <ele>835</ele>
        <time>2026-07-09T11:45:26.000Z</time>
      </trkpt>
      <trkpt lat="48.25685" lon="7.14266">
        <ele>835</ele>
        <time>2026-07-09T11:46:02.000Z</time>
      </trkpt>
      <trkpt lat="48.25711" lon="7.14265">
        <ele>837</ele>
        <time>2026-07-09T11:46:52.000Z</time>
      </trkpt>
      <trkpt lat="48.25727" lon="7.14272">
        <ele>839</ele>
        <time>2026-07-09T11:47:32.000Z</time>
      </trkpt>
      <trkpt lat="48.25744" lon="7.14316">
        <ele>840</ele>
        <time>2026-07-09T11:48:21.000Z</time>
      </trkpt>
      <trkpt lat="48.25761" lon="7.1436">
        <ele>842</ele>
        <time>2026-07-09T11:49:20.000Z</time>
      </trkpt>
      <trkpt lat="48.25777" lon="7.14405">
        <ele>842</ele>
        <time>2026-07-09T11:49:59.000Z</time>
      </trkpt>
      <trkpt lat="48.25794" lon="7.1444">
        <ele>847</ele>
        <time>2026-07-09T11:51:24.000Z</time>
      </trkpt>
      <trkpt lat="48.25811" lon="7.14476">
        <ele>845</ele>
        <time>2026-07-09T11:51:57.000Z</time>
      </trkpt>
      <trkpt lat="48.25813" lon="7.14517">
        <ele>846</ele>
        <time>2026-07-09T11:52:39.000Z</time>
      </trkpt>
      <trkpt lat="48.25805" lon="7.14564">
        <ele>848</ele>
        <time>2026-07-09T11:53:37.000Z</time>
      </trkpt>
      <trkpt lat="48.25796" lon="7.14611">
        <ele>849</ele>
        <time>2026-07-09T11:54:24.000Z</time>
      </trkpt>
      <trkpt lat="48.25794" lon="7.14658">
        <ele>854</ele>
        <time>2026-07-09T11:55:51.000Z</time>
      </trkpt>
      <trkpt lat="48.25791" lon="7.14704">
        <ele>853</ele>
        <time>2026-07-09T11:56:27.000Z</time>
      </trkpt>
      <trkpt lat="48.25801" lon="7.14755">
        <ele>854</ele>
        <time>2026-07-09T11:57:17.000Z</time>
      </trkpt>
      <trkpt lat="48.25818" lon="7.14794">
        <ele>856</ele>
        <time>2026-07-09T11:58:13.000Z</time>
      </trkpt>
      <trkpt lat="48.25813" lon="7.14782">
        <ele>855</ele>
        <time>2026-07-09T11:58:24.000Z</time>
      </trkpt>
      <trkpt lat="48.25845" lon="7.14801">
        <ele>859</ele>
        <time>2026-07-09T11:59:46.000Z</time>
      </trkpt>
      <trkpt lat="48.25873" lon="7.14798">
        <ele>864</ele>
        <time>2026-07-09T12:01:09.000Z</time>
      </trkpt>
      <trkpt lat="48.25902" lon="7.14787">
        <ele>867</ele>
        <time>2026-07-09T12:02:15.000Z</time>
      </trkpt>
      <trkpt lat="48.25932" lon="7.14776">
        <ele>867</ele>
        <time>2026-07-09T12:02:50.000Z</time>
      </trkpt>
      <trkpt lat="48.25961" lon="7.14772">
        <ele>869</ele>
        <time>2026-07-09T12:03:44.000Z</time>
      </trkpt>
      <trkpt lat="48.25992" lon="7.14776">
        <ele>874</ele>
        <time>2026-07-09T12:05:11.000Z</time>
      </trkpt>
      <trkpt lat="48.26026" lon="7.14801">
        <ele>875</ele>
        <time>2026-07-09T12:06:05.000Z</time>
      </trkpt>
      <trkpt lat="48.26066" lon="7.148">
        <ele>882</ele>
        <time>2026-07-09T12:08:02.000Z</time>
      </trkpt>
      <trkpt lat="48.26105" lon="7.14799">
        <ele>882</ele>
        <time>2026-07-09T12:08:47.000Z</time>
      </trkpt>
      <trkpt lat="48.26144" lon="7.14797">
        <ele>887</ele>
        <time>2026-07-09T12:10:24.000Z</time>
      </trkpt>
      <trkpt lat="48.26176" lon="7.14799">
        <ele>889</ele>
        <time>2026-07-09T12:11:21.000Z</time>
      </trkpt>
      <trkpt lat="48.26208" lon="7.148">
        <ele>892</ele>
        <time>2026-07-09T12:12:28.000Z</time>
      </trkpt>
      <trkpt lat="48.26239" lon="7.14801">
        <ele>896</ele>
        <time>2026-07-09T12:13:45.000Z</time>
      </trkpt>
      <trkpt lat="48.26277" lon="7.14811">
        <ele>900</ele>
        <time>2026-07-09T12:15:10.000Z</time>
      </trkpt>
      <trkpt lat="48.26297" lon="7.14823">
        <ele>899</ele>
        <time>2026-07-09T12:15:34.000Z</time>
      </trkpt>
      <trkpt lat="48.2632" lon="7.14846">
        <ele>905</ele>
        <time>2026-07-09T12:17:08.000Z</time>
      </trkpt>
      <trkpt lat="48.26344" lon="7.14869">
        <ele>906</ele>
        <time>2026-07-09T12:17:50.000Z</time>
      </trkpt>
      <trkpt lat="48.26349" lon="7.14878">
        <ele>905</ele>
        <time>2026-07-09T12:17:59.000Z</time>
      </trkpt>
      <trkpt lat="48.26373" lon="7.14917">
        <ele>908</ele>
        <time>2026-07-09T12:19:11.000Z</time>
      </trkpt>
      <trkpt lat="48.26383" lon="7.14948">
        <ele>911</ele>
        <time>2026-07-09T12:20:08.000Z</time>
      </trkpt>
      <trkpt lat="48.26394" lon="7.14979">
        <ele>914</ele>
        <time>2026-07-09T12:21:05.000Z</time>
      </trkpt>
      <trkpt lat="48.264" lon="7.15017">
        <ele>917</ele>
        <time>2026-07-09T12:22:06.000Z</time>
      </trkpt>
      <trkpt lat="48.26407" lon="7.15055">
        <ele>922</ele>
        <time>2026-07-09T12:23:28.000Z</time>
      </trkpt>
      <trkpt lat="48.26408" lon="7.15114">
        <ele>923</ele>
        <time>2026-07-09T12:24:23.000Z</time>
      </trkpt>
      <trkpt lat="48.26395" lon="7.15168">
        <ele>927</ele>
        <time>2026-07-09T12:25:47.000Z</time>
      </trkpt>
      <trkpt lat="48.26377" lon="7.15217">
        <ele>927</ele>
        <time>2026-07-09T12:26:30.000Z</time>
      </trkpt>
      <trkpt lat="48.26358" lon="7.15267">
        <ele>930</ele>
        <time>2026-07-09T12:27:44.000Z</time>
      </trkpt>
      <trkpt lat="48.26349" lon="7.153">
        <ele>932</ele>
        <time>2026-07-09T12:28:32.000Z</time>
      </trkpt>
      <trkpt lat="48.26345" lon="7.15334">
        <ele>938</ele>
        <time>2026-07-09T12:30:00.000Z</time>
      </trkpt>
      <trkpt lat="48.26341" lon="7.15367">
        <ele>937</ele>
        <time>2026-07-09T12:30:26.000Z</time>
      </trkpt>
      <trkpt lat="48.26347" lon="7.15405">
        <ele>939</ele>
        <time>2026-07-09T12:31:16.000Z</time>
      </trkpt>
      <trkpt lat="48.26355" lon="7.15425">
        <ele>939</ele>
        <time>2026-07-09T12:31:33.000Z</time>
      </trkpt>
      <trkpt lat="48.26378" lon="7.1546">
        <ele>941</ele>
        <time>2026-07-09T12:32:31.000Z</time>
      </trkpt>
      <trkpt lat="48.26394" lon="7.15474">
        <ele>942</ele>
        <time>2026-07-09T12:33:03.000Z</time>
      </trkpt>
      <trkpt lat="48.26421" lon="7.15486">
        <ele>942</ele>
        <time>2026-07-09T12:33:34.000Z</time>
      </trkpt>
      <trkpt lat="48.26447" lon="7.15499">
        <ele>945</ele>
        <time>2026-07-09T12:34:36.000Z</time>
      </trkpt>
      <trkpt lat="48.26469" lon="7.15518">
        <ele>945</ele>
        <time>2026-07-09T12:35:05.000Z</time>
      </trkpt>
      <trkpt lat="48.26478" lon="7.15526">
        <ele>946</ele>
        <time>2026-07-09T12:35:27.000Z</time>
      </trkpt>
      <trkpt lat="48.265" lon="7.15561">
        <ele>946</ele>
        <time>2026-07-09T12:36:04.000Z</time>
      </trkpt>
      <trkpt lat="48.26523" lon="7.15595">
        <ele>949</ele>
        <time>2026-07-09T12:37:12.000Z</time>
      </trkpt>
      <trkpt lat="48.26547" lon="7.15647">
        <ele>952</ele>
        <time>2026-07-09T12:38:31.000Z</time>
      </trkpt>
      <trkpt lat="48.26561" lon="7.15703">
        <ele>952</ele>
        <time>2026-07-09T12:39:17.000Z</time>
      </trkpt>
      <trkpt lat="48.2658" lon="7.1574">
        <ele>954</ele>
        <time>2026-07-09T12:40:13.000Z</time>
      </trkpt>
      <trkpt lat="48.26599" lon="7.15777">
        <ele>953</ele>
        <time>2026-07-09T12:40:49.000Z</time>
      </trkpt>
      <trkpt lat="48.26613" lon="7.1581">
        <ele>953</ele>
        <time>2026-07-09T12:41:19.000Z</time>
      </trkpt>
      <trkpt lat="48.26616" lon="7.1585">
        <ele>954</ele>
        <time>2026-07-09T12:42:00.000Z</time>
      </trkpt>
      <trkpt lat="48.26627" lon="7.15845">
        <ele>956</ele>
        <time>2026-07-09T12:42:34.000Z</time>
      </trkpt>
      <trkpt lat="48.26618" lon="7.15877">
        <ele>956</ele>
        <time>2026-07-09T12:43:00.000Z</time>
      </trkpt>
      <trkpt lat="48.26627" lon="7.15845">
        <ele>956</ele>
        <time>2026-07-09T12:43:26.000Z</time>
      </trkpt>
      <trkpt lat="48.26636" lon="7.15826">
        <ele>957</ele>
        <time>2026-07-09T12:43:54.000Z</time>
      </trkpt>
      <trkpt lat="48.26651" lon="7.15772">
        <ele>961</ele>
        <time>2026-07-09T12:45:20.000Z</time>
      </trkpt>
      <trkpt lat="48.26666" lon="7.15718">
        <ele>966</ele>
        <time>2026-07-09T12:46:56.000Z</time>
      </trkpt>
      <trkpt lat="48.26668" lon="7.15697">
        <ele>967</ele>
        <time>2026-07-09T12:47:22.000Z</time>
      </trkpt>
      <trkpt lat="48.26666" lon="7.15674">
        <ele>969</ele>
        <time>2026-07-09T12:48:00.000Z</time>
      </trkpt>
      <trkpt lat="48.26679" lon="7.15696">
        <ele>967</ele>
        <time>2026-07-09T12:48:22.000Z</time>
      </trkpt>
      <trkpt lat="48.26704" lon="7.15722">
        <ele>965</ele>
        <time>2026-07-09T12:48:56.000Z</time>
      </trkpt>
      <trkpt lat="48.26728" lon="7.15749">
        <ele>967</ele>
        <time>2026-07-09T12:49:51.000Z</time>
      </trkpt>
      <trkpt lat="48.26752" lon="7.15775">
        <ele>967</ele>
        <time>2026-07-09T12:50:25.000Z</time>
      </trkpt>
      <trkpt lat="48.26781" lon="7.158">
        <ele>962</ele>
        <time>2026-07-09T12:51:03.000Z</time>
      </trkpt>
      <trkpt lat="48.2681" lon="7.15826">
        <ele>954</ele>
        <time>2026-07-09T12:51:41.000Z</time>
      </trkpt>
      <trkpt lat="48.26838" lon="7.15851">
        <ele>950</ele>
        <time>2026-07-09T12:52:19.000Z</time>
      </trkpt>
      <trkpt lat="48.26848" lon="7.15882">
        <ele>949</ele>
        <time>2026-07-09T12:52:45.000Z</time>
      </trkpt>
      <trkpt lat="48.26858" lon="7.15913">
        <ele>949</ele>
        <time>2026-07-09T12:53:11.000Z</time>
      </trkpt>
      <trkpt lat="48.26879" lon="7.15952">
        <ele>949</ele>
        <time>2026-07-09T12:53:49.000Z</time>
      </trkpt>
      <trkpt lat="48.26902" lon="7.15964">
        <ele>946</ele>
        <time>2026-07-09T12:54:17.000Z</time>
      </trkpt>
      <trkpt lat="48.26925" lon="7.15976">
        <ele>942</ele>
        <time>2026-07-09T12:54:45.000Z</time>
      </trkpt>
      <trkpt lat="48.26952" lon="7.15995">
        <ele>935</ele>
        <time>2026-07-09T12:55:19.000Z</time>
      </trkpt>
      <trkpt lat="48.26979" lon="7.16015">
        <ele>929</ele>
        <time>2026-07-09T12:55:53.000Z</time>
      </trkpt>
      <trkpt lat="48.26995" lon="7.16019">
        <ele>926</ele>
        <time>2026-07-09T12:56:11.000Z</time>
      </trkpt>
      <trkpt lat="48.27018" lon="7.16041">
        <ele>922</ele>
        <time>2026-07-09T12:56:42.000Z</time>
      </trkpt>
      <trkpt lat="48.27043" lon="7.16052">
        <ele>920</ele>
        <time>2026-07-09T12:57:12.000Z</time>
      </trkpt>
      <trkpt lat="48.27068" lon="7.16062">
        <ele>920</ele>
        <time>2026-07-09T12:57:42.000Z</time>
      </trkpt>
      <trkpt lat="48.27091" lon="7.16076">
        <ele>920</ele>
        <time>2026-07-09T12:58:10.000Z</time>
      </trkpt>
      <trkpt lat="48.27121" lon="7.16085">
        <ele>920</ele>
        <time>2026-07-09T12:58:45.000Z</time>
      </trkpt>
      <trkpt lat="48.27139" lon="7.16075">
        <ele>917</ele>
        <time>2026-07-09T12:59:07.000Z</time>
      </trkpt>
      <trkpt lat="48.2716" lon="7.16055">
        <ele>912</ele>
        <time>2026-07-09T12:59:36.000Z</time>
      </trkpt>
      <trkpt lat="48.27182" lon="7.16034">
        <ele>904</ele>
        <time>2026-07-09T13:00:05.000Z</time>
      </trkpt>
      <trkpt lat="48.27204" lon="7.1601">
        <ele>896</ele>
        <time>2026-07-09T13:00:37.000Z</time>
      </trkpt>
      <trkpt lat="48.27227" lon="7.15985">
        <ele>889</ele>
        <time>2026-07-09T13:01:09.000Z</time>
      </trkpt>
      <trkpt lat="48.27244" lon="7.15962">
        <ele>883</ele>
        <time>2026-07-09T13:01:35.000Z</time>
      </trkpt>
      <trkpt lat="48.2726" lon="7.15939">
        <ele>878</ele>
        <time>2026-07-09T13:02:01.000Z</time>
      </trkpt>
      <trkpt lat="48.2728" lon="7.15922">
        <ele>873</ele>
        <time>2026-07-09T13:02:27.000Z</time>
      </trkpt>
      <trkpt lat="48.27299" lon="7.15904">
        <ele>867</ele>
        <time>2026-07-09T13:02:53.000Z</time>
      </trkpt>
      <trkpt lat="48.2732" lon="7.1589">
        <ele>861</ele>
        <time>2026-07-09T13:03:20.000Z</time>
      </trkpt>
      <trkpt lat="48.27342" lon="7.15875">
        <ele>856</ele>
        <time>2026-07-09T13:03:47.000Z</time>
      </trkpt>
      <trkpt lat="48.27342" lon="7.15875">
        <ele>856</ele>
        <time>2026-07-09T13:03:47.000Z</time>
      </trkpt>
      <trkpt lat="48.27361" lon="7.15874">
        <ele>853</ele>
        <time>2026-07-09T13:04:09.000Z</time>
      </trkpt>
      <trkpt lat="48.27391" lon="7.15882">
        <ele>847</ele>
        <time>2026-07-09T13:04:44.000Z</time>
      </trkpt>
      <trkpt lat="48.27395" lon="7.15875">
        <ele>847</ele>
        <time>2026-07-09T13:04:51.000Z</time>
      </trkpt>
      <trkpt lat="48.27425" lon="7.15911">
        <ele>843</ele>
        <time>2026-07-09T13:05:35.000Z</time>
      </trkpt>
      <trkpt lat="48.27454" lon="7.15928">
        <ele>840</ele>
        <time>2026-07-09T13:06:11.000Z</time>
      </trkpt>
      <trkpt lat="48.27479" lon="7.15937">
        <ele>838</ele>
        <time>2026-07-09T13:06:40.000Z</time>
      </trkpt>
      <trkpt lat="48.27519" lon="7.15941">
        <ele>837</ele>
        <time>2026-07-09T13:07:26.000Z</time>
      </trkpt>
      <trkpt lat="48.27599" lon="7.15984">
        <ele>836</ele>
        <time>2026-07-09T13:09:03.000Z</time>
      </trkpt>
      <trkpt lat="48.27642" lon="7.16012">
        <ele>837</ele>
        <time>2026-07-09T13:10:06.000Z</time>
      </trkpt>
      <trkpt lat="48.2768" lon="7.16054">
        <ele>842</ele>
        <time>2026-07-09T13:11:52.000Z</time>
      </trkpt>
      <trkpt lat="48.27703" lon="7.16067">
        <ele>843</ele>
        <time>2026-07-09T13:12:30.000Z</time>
      </trkpt>
      <trkpt lat="48.27755" lon="7.16115">
        <ele>845</ele>
        <time>2026-07-09T13:14:00.000Z</time>
      </trkpt>
      <trkpt lat="48.27781" lon="7.1614">
        <ele>843</ele>
        <time>2026-07-09T13:14:35.000Z</time>
      </trkpt>
      <trkpt lat="48.27814" lon="7.16163">
        <ele>839</ele>
        <time>2026-07-09T13:15:17.000Z</time>
      </trkpt>
      <trkpt lat="48.27835" lon="7.16184">
        <ele>838</ele>
        <time>2026-07-09T13:15:46.000Z</time>
      </trkpt>
      <trkpt lat="48.27866" lon="7.16234">
        <ele>834</ele>
        <time>2026-07-09T13:16:38.000Z</time>
      </trkpt>
      <trkpt lat="48.27943" lon="7.16278">
        <ele>835</ele>
        <time>2026-07-09T13:18:23.000Z</time>
      </trkpt>
      <trkpt lat="48.28073" lon="7.1622">
        <ele>837</ele>
        <time>2026-07-09T13:21:20.000Z</time>
      </trkpt>
      <trkpt lat="48.28109" lon="7.16202">
        <ele>841</ele>
        <time>2026-07-09T13:22:44.000Z</time>
      </trkpt>
      <trkpt lat="48.28173" lon="7.16154">
        <ele>844</ele>
        <time>2026-07-09T13:24:37.000Z</time>
      </trkpt>
      <trkpt lat="48.28218" lon="7.16135">
        <ele>846</ele>
        <time>2026-07-09T13:25:51.000Z</time>
      </trkpt>
      <trkpt lat="48.2824" lon="7.16134">
        <ele>845</ele>
        <time>2026-07-09T13:26:16.000Z</time>
      </trkpt>
      <trkpt lat="48.28254" lon="7.16142">
        <ele>845</ele>
        <time>2026-07-09T13:26:33.000Z</time>
      </trkpt>
      <trkpt lat="48.28266" lon="7.16166">
        <ele>845</ele>
        <time>2026-07-09T13:26:56.000Z</time>
      </trkpt>
      <trkpt lat="48.28279" lon="7.16213">
        <ele>844</ele>
        <time>2026-07-09T13:27:34.000Z</time>
      </trkpt>
      <trkpt lat="48.28279" lon="7.16213">
        <ele>844</ele>
        <time>2026-07-09T13:27:34.000Z</time>
      </trkpt>
      <trkpt lat="48.28324" lon="7.16315">
        <ele>841</ele>
        <time>2026-07-09T13:29:07.000Z</time>
      </trkpt>
      <trkpt lat="48.28344" lon="7.16368">
        <ele>840</ele>
        <time>2026-07-09T13:29:53.000Z</time>
      </trkpt>
      <trkpt lat="48.2838" lon="7.16429">
        <ele>842</ele>
        <time>2026-07-09T13:31:16.000Z</time>
      </trkpt>
      <trkpt lat="48.28424" lon="7.16523">
        <ele>843</ele>
        <time>2026-07-09T13:32:54.000Z</time>
      </trkpt>
      <trkpt lat="48.28518" lon="7.16655">
        <ele>849</ele>
        <time>2026-07-09T13:36:23.000Z</time>
      </trkpt>
      <trkpt lat="48.28553" lon="7.16715">
        <ele>852</ele>
        <time>2026-07-09T13:37:55.000Z</time>
      </trkpt>
      <trkpt lat="48.28565" lon="7.16767">
        <ele>857</ele>
        <time>2026-07-09T13:39:28.000Z</time>
      </trkpt>
      <trkpt lat="48.28565" lon="7.16804">
        <ele>861</ele>
        <time>2026-07-09T13:40:37.000Z</time>
      </trkpt>
      <trkpt lat="48.28546" lon="7.16909">
        <ele>866</ele>
        <time>2026-07-09T13:42:51.000Z</time>
      </trkpt>
      <trkpt lat="48.28546" lon="7.16909">
        <ele>866</ele>
        <time>2026-07-09T13:42:51.000Z</time>
      </trkpt>
      <trkpt lat="48.28544" lon="7.16916">
        <ele>866</ele>
        <time>2026-07-09T13:42:56.000Z</time>
      </trkpt>
      <trkpt lat="48.28556" lon="7.16937">
        <ele>866</ele>
        <time>2026-07-09T13:43:18.000Z</time>
      </trkpt>
      <trkpt lat="48.28563" lon="7.16963">
        <ele>868</ele>
        <time>2026-07-09T13:44:00.000Z</time>
      </trkpt>
      <trkpt lat="48.28571" lon="7.17027">
        <ele>870</ele>
        <time>2026-07-09T13:45:10.000Z</time>
      </trkpt>
      <trkpt lat="48.28559" lon="7.17059">
        <ele>870</ele>
        <time>2026-07-09T13:45:38.000Z</time>
      </trkpt>
      <trkpt lat="48.28541" lon="7.17088">
        <ele>869</ele>
        <time>2026-07-09T13:46:09.000Z</time>
      </trkpt>
      <trkpt lat="48.28524" lon="7.17125">
        <ele>866</ele>
        <time>2026-07-09T13:46:43.000Z</time>
      </trkpt>
      <trkpt lat="48.28517" lon="7.17149">
        <ele>864</ele>
        <time>2026-07-09T13:47:03.000Z</time>
      </trkpt>
      <trkpt lat="48.2851" lon="7.17203">
        <ele>859</ele>
        <time>2026-07-09T13:47:45.000Z</time>
      </trkpt>
      <trkpt lat="48.2851" lon="7.17234">
        <ele>856</ele>
        <time>2026-07-09T13:48:09.000Z</time>
      </trkpt>
      <trkpt lat="48.28508" lon="7.17252">
        <ele>855</ele>
        <time>2026-07-09T13:48:22.000Z</time>
      </trkpt>
      <trkpt lat="48.28504" lon="7.1726">
        <ele>852</ele>
        <time>2026-07-09T13:48:30.000Z</time>
      </trkpt>
      <trkpt lat="48.2847" lon="7.17278">
        <ele>835</ele>
        <time>2026-07-09T13:49:11.000Z</time>
      </trkpt>
      <trkpt lat="48.28435" lon="7.17296">
        <ele>822</ele>
        <time>2026-07-09T13:49:52.000Z</time>
      </trkpt>
      <trkpt lat="48.28442" lon="7.17313">
        <ele>821</ele>
        <time>2026-07-09T13:50:07.000Z</time>
      </trkpt>
      <trkpt lat="48.28435" lon="7.17296">
        <ele>822</ele>
        <time>2026-07-09T13:50:32.000Z</time>
      </trkpt>
      <trkpt lat="48.28467" lon="7.17332">
        <ele>821</ele>
        <time>2026-07-09T13:51:17.000Z</time>
      </trkpt>
      <trkpt lat="48.28496" lon="7.17347">
        <ele>819</ele>
        <time>2026-07-09T13:51:52.000Z</time>
      </trkpt>
      <trkpt lat="48.28525" lon="7.17361">
        <ele>820</ele>
        <time>2026-07-09T13:52:37.000Z</time>
      </trkpt>
      <trkpt lat="48.28559" lon="7.17384">
        <ele>823</ele>
        <time>2026-07-09T13:53:50.000Z</time>
      </trkpt>
      <trkpt lat="48.28593" lon="7.17407">
        <ele>823</ele>
        <time>2026-07-09T13:54:32.000Z</time>
      </trkpt>
      <trkpt lat="48.28627" lon="7.17429">
        <ele>823</ele>
        <time>2026-07-09T13:55:14.000Z</time>
      </trkpt>
      <trkpt lat="48.28655" lon="7.17436">
        <ele>824</ele>
        <time>2026-07-09T13:55:57.000Z</time>
      </trkpt>
      <trkpt lat="48.28683" lon="7.17443">
        <ele>825</ele>
        <time>2026-07-09T13:56:40.000Z</time>
      </trkpt>
      <trkpt lat="48.28722" lon="7.17446">
        <ele>826</ele>
        <time>2026-07-09T13:57:35.000Z</time>
      </trkpt>
      <trkpt lat="48.28735" lon="7.17455">
        <ele>828</ele>
        <time>2026-07-09T13:58:12.000Z</time>
      </trkpt>
      <trkpt lat="48.28754" lon="7.17504">
        <ele>827</ele>
        <time>2026-07-09T13:58:55.000Z</time>
      </trkpt>
      <trkpt lat="48.28757" lon="7.17541">
        <ele>827</ele>
        <time>2026-07-09T13:59:23.000Z</time>
      </trkpt>
      <trkpt lat="48.28757" lon="7.1758">
        <ele>827</ele>
        <time>2026-07-09T13:59:53.000Z</time>
      </trkpt>
      <trkpt lat="48.28756" lon="7.17619">
        <ele>828</ele>
        <time>2026-07-09T14:00:33.000Z</time>
      </trkpt>
      <trkpt lat="48.28751" lon="7.17672">
        <ele>828</ele>
        <time>2026-07-09T14:01:14.000Z</time>
      </trkpt>
      <trkpt lat="48.28746" lon="7.17725">
        <ele>827</ele>
        <time>2026-07-09T14:01:55.000Z</time>
      </trkpt>
      <trkpt lat="48.28741" lon="7.17778">
        <ele>829</ele>
        <time>2026-07-09T14:02:56.000Z</time>
      </trkpt>
      <trkpt lat="48.28736" lon="7.17831">
        <ele>829</ele>
        <time>2026-07-09T14:03:37.000Z</time>
      </trkpt>
      <trkpt lat="48.28725" lon="7.17871">
        <ele>828</ele>
        <time>2026-07-09T14:04:10.000Z</time>
      </trkpt>
      <trkpt lat="48.28714" lon="7.17911">
        <ele>833</ele>
        <time>2026-07-09T14:05:34.000Z</time>
      </trkpt>
      <trkpt lat="48.28707" lon="7.17923">
        <ele>829</ele>
        <time>2026-07-09T14:05:46.000Z</time>
      </trkpt>
      <trkpt lat="48.28694" lon="7.17961">
        <ele>832</ele>
        <time>2026-07-09T14:06:50.000Z</time>
      </trkpt>
      <trkpt lat="48.28682" lon="7.18">
        <ele>836</ele>
        <time>2026-07-09T14:08:04.000Z</time>
      </trkpt>
      <trkpt lat="48.28664" lon="7.18039">
        <ele>834</ele>
        <time>2026-07-09T14:08:40.000Z</time>
      </trkpt>
      <trkpt lat="48.28647" lon="7.18078">
        <ele>834</ele>
        <time>2026-07-09T14:09:16.000Z</time>
      </trkpt>
      <trkpt lat="48.28623" lon="7.18115">
        <ele>834</ele>
        <time>2026-07-09T14:09:56.000Z</time>
      </trkpt>
      <trkpt lat="48.28588" lon="7.1815">
        <ele>833</ele>
        <time>2026-07-09T14:10:43.000Z</time>
      </trkpt>
      <trkpt lat="48.28558" lon="7.18171">
        <ele>833</ele>
        <time>2026-07-09T14:11:22.000Z</time>
      </trkpt>
      <trkpt lat="48.28544" lon="7.18187">
        <ele>833</ele>
        <time>2026-07-09T14:11:42.000Z</time>
      </trkpt>
      <trkpt lat="48.28536" lon="7.18201">
        <ele>833</ele>
        <time>2026-07-09T14:11:56.000Z</time>
      </trkpt>
      <trkpt lat="48.28535" lon="7.1823">
        <ele>833</ele>
        <time>2026-07-09T14:12:18.000Z</time>
      </trkpt>
      <trkpt lat="48.28549" lon="7.18282">
        <ele>832</ele>
        <time>2026-07-09T14:13:00.000Z</time>
      </trkpt>
      <trkpt lat="48.28564" lon="7.18312">
        <ele>832</ele>
        <time>2026-07-09T14:13:29.000Z</time>
      </trkpt>
      <trkpt lat="48.28591" lon="7.18346">
        <ele>833</ele>
        <time>2026-07-09T14:14:20.000Z</time>
      </trkpt>
      <trkpt lat="48.28617" lon="7.18381">
        <ele>829</ele>
        <time>2026-07-09T14:15:00.000Z</time>
      </trkpt>
      <trkpt lat="48.28644" lon="7.18415">
        <ele>825</ele>
        <time>2026-07-09T14:15:40.000Z</time>
      </trkpt>
      <trkpt lat="48.28673" lon="7.18439">
        <ele>824</ele>
        <time>2026-07-09T14:16:17.000Z</time>
      </trkpt>
      <trkpt lat="48.28702" lon="7.18449">
        <ele>820</ele>
        <time>2026-07-09T14:16:52.000Z</time>
      </trkpt>
      <trkpt lat="48.28727" lon="7.18437">
        <ele>819</ele>
        <time>2026-07-09T14:17:22.000Z</time>
      </trkpt>
      <trkpt lat="48.28754" lon="7.18432">
        <ele>819</ele>
        <time>2026-07-09T14:17:53.000Z</time>
      </trkpt>
      <trkpt lat="48.28781" lon="7.18427">
        <ele>815</ele>
        <time>2026-07-09T14:18:24.000Z</time>
      </trkpt>
      <trkpt lat="48.28805" lon="7.18413">
        <ele>814</ele>
        <time>2026-07-09T14:18:54.000Z</time>
      </trkpt>
      <trkpt lat="48.28835" lon="7.18381">
        <ele>812</ele>
        <time>2026-07-09T14:19:36.000Z</time>
      </trkpt>
      <trkpt lat="48.28866" lon="7.1835">
        <ele>811</ele>
        <time>2026-07-09T14:20:18.000Z</time>
      </trkpt>
      <trkpt lat="48.28883" lon="7.18321">
        <ele>809</ele>
        <time>2026-07-09T14:20:48.000Z</time>
      </trkpt>
      <trkpt lat="48.2891" lon="7.18269">
        <ele>805</ele>
        <time>2026-07-09T14:21:38.000Z</time>
      </trkpt>
      <trkpt lat="48.28937" lon="7.18217">
        <ele>804</ele>
        <time>2026-07-09T14:22:28.000Z</time>
      </trkpt>
      <trkpt lat="48.28958" lon="7.18172">
        <ele>802</ele>
        <time>2026-07-09T14:23:10.000Z</time>
      </trkpt>
      <trkpt lat="48.28979" lon="7.18127">
        <ele>799</ele>
        <time>2026-07-09T14:23:52.000Z</time>
      </trkpt>
      <trkpt lat="48.28999" lon="7.18082">
        <ele>797</ele>
        <time>2026-07-09T14:24:34.000Z</time>
      </trkpt>
      <trkpt lat="48.29013" lon="7.1806">
        <ele>796</ele>
        <time>2026-07-09T14:24:57.000Z</time>
      </trkpt>
      <trkpt lat="48.29026" lon="7.18017">
        <ele>793</ele>
        <time>2026-07-09T14:25:33.000Z</time>
      </trkpt>
      <trkpt lat="48.29039" lon="7.17974">
        <ele>792</ele>
        <time>2026-07-09T14:26:09.000Z</time>
      </trkpt>
      <trkpt lat="48.29048" lon="7.17922">
        <ele>788</ele>
        <time>2026-07-09T14:26:50.000Z</time>
      </trkpt>
      <trkpt lat="48.29058" lon="7.17871">
        <ele>792</ele>
        <time>2026-07-09T14:28:12.000Z</time>
      </trkpt>
      <trkpt lat="48.29075" lon="7.17833">
        <ele>789</ele>
        <time>2026-07-09T14:28:47.000Z</time>
      </trkpt>
      <trkpt lat="48.29092" lon="7.17794">
        <ele>785</ele>
        <time>2026-07-09T14:29:22.000Z</time>
      </trkpt>
      <trkpt lat="48.29108" lon="7.17763">
        <ele>782</ele>
        <time>2026-07-09T14:29:52.000Z</time>
      </trkpt>
      <trkpt lat="48.29124" lon="7.17732">
        <ele>783</ele>
        <time>2026-07-09T14:30:33.000Z</time>
      </trkpt>
      <trkpt lat="48.29154" lon="7.17711">
        <ele>783</ele>
        <time>2026-07-09T14:31:10.000Z</time>
      </trkpt>
      <trkpt lat="48.29171" lon="7.17709">
        <ele>784</ele>
        <time>2026-07-09T14:31:40.000Z</time>
      </trkpt>
      <trkpt lat="48.29215" lon="7.1772">
        <ele>789</ele>
        <time>2026-07-09T14:33:23.000Z</time>
      </trkpt>
      <trkpt lat="48.29233" lon="7.17718">
        <ele>790</ele>
        <time>2026-07-09T14:33:53.000Z</time>
      </trkpt>
      <trkpt lat="48.29247" lon="7.17708">
        <ele>792</ele>
        <time>2026-07-09T14:34:32.000Z</time>
      </trkpt>
      <trkpt lat="48.29257" lon="7.17696">
        <ele>792</ele>
        <time>2026-07-09T14:34:46.000Z</time>
      </trkpt>
      <trkpt lat="48.29271" lon="7.17668">
        <ele>792</ele>
        <time>2026-07-09T14:35:13.000Z</time>
      </trkpt>
      <trkpt lat="48.29285" lon="7.1764">
        <ele>794</ele>
        <time>2026-07-09T14:36:00.000Z</time>
      </trkpt>
      <trkpt lat="48.29293" lon="7.17599">
        <ele>797</ele>
        <time>2026-07-09T14:37:04.000Z</time>
      </trkpt>
      <trkpt lat="48.29297" lon="7.1755">
        <ele>803</ele>
        <time>2026-07-09T14:38:43.000Z</time>
      </trkpt>
      <trkpt lat="48.29297" lon="7.1755">
        <ele>803</ele>
        <time>2026-07-09T14:38:43.000Z</time>
      </trkpt>
      <trkpt lat="48.29297" lon="7.17515">
        <ele>806</ele>
        <time>2026-07-09T14:39:40.000Z</time>
      </trkpt>
      <trkpt lat="48.29298" lon="7.17481">
        <ele>807</ele>
        <time>2026-07-09T14:40:17.000Z</time>
      </trkpt>
      <trkpt lat="48.29304" lon="7.17457">
        <ele>809</ele>
        <time>2026-07-09T14:40:57.000Z</time>
      </trkpt>
      <trkpt lat="48.29319" lon="7.17437">
        <ele>810</ele>
        <time>2026-07-09T14:41:31.000Z</time>
      </trkpt>
      <trkpt lat="48.29348" lon="7.17412">
        <ele>811</ele>
        <time>2026-07-09T14:42:19.000Z</time>
      </trkpt>
      <trkpt lat="48.29376" lon="7.17386">
        <ele>811</ele>
        <time>2026-07-09T14:42:57.000Z</time>
      </trkpt>
      <trkpt lat="48.29399" lon="7.17375">
        <ele>811</ele>
        <time>2026-07-09T14:43:24.000Z</time>
      </trkpt>
      <trkpt lat="48.29421" lon="7.17363">
        <ele>812</ele>
        <time>2026-07-09T14:44:01.000Z</time>
      </trkpt>
      <trkpt lat="48.29463" lon="7.1735">
        <ele>813</ele>
        <time>2026-07-09T14:45:00.000Z</time>
      </trkpt>
      <trkpt lat="48.29502" lon="7.17346">
        <ele>812</ele>
        <time>2026-07-09T14:45:45.000Z</time>
      </trkpt>
      <trkpt lat="48.29533" lon="7.17351">
        <ele>808</ele>
        <time>2026-07-09T14:46:21.000Z</time>
      </trkpt>
      <trkpt lat="48.29564" lon="7.17355">
        <ele>806</ele>
        <time>2026-07-09T14:46:57.000Z</time>
      </trkpt>
      <trkpt lat="48.29595" lon="7.17359">
        <ele>805</ele>
        <time>2026-07-09T14:47:33.000Z</time>
      </trkpt>
      <trkpt lat="48.29564" lon="7.17355">
        <ele>806</ele>
        <time>2026-07-09T14:48:19.000Z</time>
      </trkpt>
      <trkpt lat="48.29533" lon="7.17351">
        <ele>808</ele>
        <time>2026-07-09T14:49:15.000Z</time>
      </trkpt>
      <trkpt lat="48.29502" lon="7.17347">
        <ele>812</ele>
        <time>2026-07-09T14:50:32.000Z</time>
      </trkpt>
      <trkpt lat="48.29482" lon="7.17339">
        <ele>814</ele>
        <time>2026-07-09T14:51:16.000Z</time>
      </trkpt>
      <trkpt lat="48.29452" lon="7.17338">
        <ele>816</ele>
        <time>2026-07-09T14:52:11.000Z</time>
      </trkpt>
      <trkpt lat="48.29422" lon="7.17337">
        <ele>819</ele>
        <time>2026-07-09T14:53:16.000Z</time>
      </trkpt>
      <trkpt lat="48.29397" lon="7.17341">
        <ele>820</ele>
        <time>2026-07-09T14:53:55.000Z</time>
      </trkpt>
      <trkpt lat="48.29371" lon="7.17345">
        <ele>823</ele>
        <time>2026-07-09T14:54:55.000Z</time>
      </trkpt>
      <trkpt lat="48.29348" lon="7.17357">
        <ele>824</ele>
        <time>2026-07-09T14:55:34.000Z</time>
      </trkpt>
      <trkpt lat="48.2933" lon="7.17372">
        <ele>825</ele>
        <time>2026-07-09T14:56:07.000Z</time>
      </trkpt>
      <trkpt lat="48.29306" lon="7.17374">
        <ele>824</ele>
        <time>2026-07-09T14:56:35.000Z</time>
      </trkpt>
      <trkpt lat="48.29306" lon="7.17374">
        <ele>824</ele>
        <time>2026-07-09T14:56:35.000Z</time>
      </trkpt>
      <trkpt lat="48.29282" lon="7.17375">
        <ele>822</ele>
        <time>2026-07-09T14:57:02.000Z</time>
      </trkpt>
      <trkpt lat="48.29258" lon="7.17377">
        <ele>821</ele>
        <time>2026-07-09T14:57:29.000Z</time>
      </trkpt>
      <trkpt lat="48.29226" lon="7.17408">
        <ele>824</ele>
        <time>2026-07-09T14:58:44.000Z</time>
      </trkpt>
      <trkpt lat="48.29193" lon="7.17439">
        <ele>829</ele>
        <time>2026-07-09T15:00:20.000Z</time>
      </trkpt>
      <trkpt lat="48.29172" lon="7.17473">
        <ele>836</ele>
        <time>2026-07-09T15:02:07.000Z</time>
      </trkpt>
      <trkpt lat="48.29152" lon="7.17507">
        <ele>836</ele>
        <time>2026-07-09T15:02:42.000Z</time>
      </trkpt>
      <trkpt lat="48.29131" lon="7.1753">
        <ele>837</ele>
        <time>2026-07-09T15:03:21.000Z</time>
      </trkpt>
      <trkpt lat="48.29111" lon="7.17554">
        <ele>837</ele>
        <time>2026-07-09T15:03:50.000Z</time>
      </trkpt>
      <trkpt lat="48.29101" lon="7.17559">
        <ele>837</ele>
        <time>2026-07-09T15:04:02.000Z</time>
      </trkpt>
      <trkpt lat="48.29068" lon="7.17558">
        <ele>840</ele>
        <time>2026-07-09T15:05:11.000Z</time>
      </trkpt>
      <trkpt lat="48.29051" lon="7.17549">
        <ele>841</ele>
        <time>2026-07-09T15:05:42.000Z</time>
      </trkpt>
      <trkpt lat="48.29021" lon="7.17525">
        <ele>843</ele>
        <time>2026-07-09T15:06:41.000Z</time>
      </trkpt>
      <trkpt lat="48.28992" lon="7.17501">
        <ele>843</ele>
        <time>2026-07-09T15:07:19.000Z</time>
      </trkpt>
      <trkpt lat="48.28962" lon="7.17478">
        <ele>847</ele>
        <time>2026-07-09T15:08:39.000Z</time>
      </trkpt>
      <trkpt lat="48.28962" lon="7.17478">
        <ele>847</ele>
        <time>2026-07-09T15:08:39.000Z</time>
      </trkpt>
      <trkpt lat="48.28932" lon="7.17451">
        <ele>849</ele>
        <time>2026-07-09T15:09:39.000Z</time>
      </trkpt>
      <trkpt lat="48.28903" lon="7.17424">
        <ele>851</ele>
        <time>2026-07-09T15:10:39.000Z</time>
      </trkpt>
      <trkpt lat="48.28873" lon="7.17397">
        <ele>852</ele>
        <time>2026-07-09T15:11:29.000Z</time>
      </trkpt>
      <trkpt lat="48.28846" lon="7.17381">
        <ele>855</ele>
        <time>2026-07-09T15:12:33.000Z</time>
      </trkpt>
      <trkpt lat="48.28819" lon="7.17365">
        <ele>857</ele>
        <time>2026-07-09T15:13:27.000Z</time>
      </trkpt>
      <trkpt lat="48.2879" lon="7.17356">
        <ele>857</ele>
        <time>2026-07-09T15:14:01.000Z</time>
      </trkpt>
      <trkpt lat="48.28774" lon="7.17344">
        <ele>857</ele>
        <time>2026-07-09T15:14:21.000Z</time>
      </trkpt>
      <trkpt lat="48.28762" lon="7.17325">
        <ele>857</ele>
        <time>2026-07-09T15:14:41.000Z</time>
      </trkpt>
      <trkpt lat="48.28751" lon="7.17305">
        <ele>858</ele>
        <time>2026-07-09T15:15:11.000Z</time>
      </trkpt>
      <trkpt lat="48.28621" lon="7.17123">
        <ele>867</ele>
        <time>2026-07-09T15:20:07.000Z</time>
      </trkpt>
      <trkpt lat="48.28571" lon="7.17027">
        <ele>870</ele>
        <time>2026-07-09T15:22:10.000Z</time>
      </trkpt>
      <trkpt lat="48.28563" lon="7.16963">
        <ele>868</ele>
        <time>2026-07-09T15:23:00.000Z</time>
      </trkpt>
      <trkpt lat="48.28556" lon="7.16937">
        <ele>866</ele>
        <time>2026-07-09T15:23:21.000Z</time>
      </trkpt>
      <trkpt lat="48.28544" lon="7.16916">
        <ele>866</ele>
        <time>2026-07-09T15:23:43.000Z</time>
      </trkpt>
      <trkpt lat="48.28456" lon="7.16876">
        <ele>862</ele>
        <time>2026-07-09T15:25:28.000Z</time>
      </trkpt>
      <trkpt lat="48.2838" lon="7.16855">
        <ele>858</ele>
        <time>2026-07-09T15:26:57.000Z</time>
      </trkpt>
      <trkpt lat="48.28354" lon="7.16843">
        <ele>857</ele>
        <time>2026-07-09T15:27:28.000Z</time>
      </trkpt>
      <trkpt lat="48.28319" lon="7.16804">
        <ele>854</ele>
        <time>2026-07-09T15:28:18.000Z</time>
      </trkpt>
      <trkpt lat="48.28302" lon="7.16775">
        <ele>856</ele>
        <time>2026-07-09T15:29:08.000Z</time>
      </trkpt>
      <trkpt lat="48.28286" lon="7.16747">
        <ele>853</ele>
        <time>2026-07-09T15:29:37.000Z</time>
      </trkpt>
      <trkpt lat="48.28253" lon="7.1671">
        <ele>855</ele>
        <time>2026-07-09T15:30:45.000Z</time>
      </trkpt>
      <trkpt lat="48.28221" lon="7.16691">
        <ele>851</ele>
        <time>2026-07-09T15:31:24.000Z</time>
      </trkpt>
      <trkpt lat="48.28196" lon="7.16687">
        <ele>850</ele>
        <time>2026-07-09T15:31:53.000Z</time>
      </trkpt>
      <trkpt lat="48.28167" lon="7.16692">
        <ele>850</ele>
        <time>2026-07-09T15:32:25.000Z</time>
      </trkpt>
      <trkpt lat="48.281" lon="7.16739">
        <ele>847</ele>
        <time>2026-07-09T15:33:49.000Z</time>
      </trkpt>
      <trkpt lat="48.28081" lon="7.16735">
        <ele>846</ele>
        <time>2026-07-09T15:34:12.000Z</time>
      </trkpt>
      <trkpt lat="48.28081" lon="7.16735">
        <ele>846</ele>
        <time>2026-07-09T15:34:12.000Z</time>
      </trkpt>
      <trkpt lat="48.28069" lon="7.16726">
        <ele>845</ele>
        <time>2026-07-09T15:34:27.000Z</time>
      </trkpt>
      <trkpt lat="48.28053" lon="7.16694">
        <ele>844</ele>
        <time>2026-07-09T15:34:57.000Z</time>
      </trkpt>
      <trkpt lat="48.28044" lon="7.16614">
        <ele>844</ele>
        <time>2026-07-09T15:35:59.000Z</time>
      </trkpt>
      <trkpt lat="48.28042" lon="7.16519">
        <ele>840</ele>
        <time>2026-07-09T15:37:11.000Z</time>
      </trkpt>
      <trkpt lat="48.28041" lon="7.16472">
        <ele>842</ele>
        <time>2026-07-09T15:38:07.000Z</time>
      </trkpt>
      <trkpt lat="48.28033" lon="7.16409">
        <ele>841</ele>
        <time>2026-07-09T15:38:56.000Z</time>
      </trkpt>
      <trkpt lat="48.28012" lon="7.16358">
        <ele>837</ele>
        <time>2026-07-09T15:39:41.000Z</time>
      </trkpt>
      <trkpt lat="48.27966" lon="7.16301">
        <ele>836</ele>
        <time>2026-07-09T15:40:50.000Z</time>
      </trkpt>
      <trkpt lat="48.27935" lon="7.16273">
        <ele>834</ele>
        <time>2026-07-09T15:41:31.000Z</time>
      </trkpt>
      <trkpt lat="48.27866" lon="7.16234">
        <ele>834</ele>
        <time>2026-07-09T15:42:56.000Z</time>
      </trkpt>
      <trkpt lat="48.27835" lon="7.16184">
        <ele>838</ele>
        <time>2026-07-09T15:44:29.000Z</time>
      </trkpt>
      <trkpt lat="48.27814" lon="7.16163">
        <ele>839</ele>
        <time>2026-07-09T15:45:08.000Z</time>
      </trkpt>
      <trkpt lat="48.27781" lon="7.16139">
        <ele>843</ele>
        <time>2026-07-09T15:46:31.000Z</time>
      </trkpt>
      <trkpt lat="48.27755" lon="7.16115">
        <ele>845</ele>
        <time>2026-07-09T15:47:27.000Z</time>
      </trkpt>
      <trkpt lat="48.27703" lon="7.16067">
        <ele>843</ele>
        <time>2026-07-09T15:48:37.000Z</time>
      </trkpt>
      <trkpt lat="48.2768" lon="7.16054">
        <ele>841</ele>
        <time>2026-07-09T15:49:05.000Z</time>
      </trkpt>
      <trkpt lat="48.27642" lon="7.16012">
        <ele>837</ele>
        <time>2026-07-09T15:49:59.000Z</time>
      </trkpt>
      <trkpt lat="48.27599" lon="7.15984">
        <ele>836</ele>
        <time>2026-07-09T15:50:52.000Z</time>
      </trkpt>
      <trkpt lat="48.27519" lon="7.15941">
        <ele>837</ele>
        <time>2026-07-09T15:52:40.000Z</time>
      </trkpt>
      <trkpt lat="48.27479" lon="7.15937">
        <ele>838</ele>
        <time>2026-07-09T15:53:36.000Z</time>
      </trkpt>
      <trkpt lat="48.27454" lon="7.15928">
        <ele>840</ele>
        <time>2026-07-09T15:54:26.000Z</time>
      </trkpt>
      <trkpt lat="48.27425" lon="7.15911">
        <ele>844</ele>
        <time>2026-07-09T15:55:43.000Z</time>
      </trkpt>
      <trkpt lat="48.27361" lon="7.1583">
        <ele>849</ele>
        <time>2026-07-09T15:58:10.000Z</time>
      </trkpt>
      <trkpt lat="48.27329" lon="7.1579">
        <ele>848</ele>
        <time>2026-07-09T15:58:58.000Z</time>
      </trkpt>
      <trkpt lat="48.27253" lon="7.15744">
        <ele>848</ele>
        <time>2026-07-09T16:00:32.000Z</time>
      </trkpt>
      <trkpt lat="48.27227" lon="7.15725">
        <ele>848</ele>
        <time>2026-07-09T16:01:05.000Z</time>
      </trkpt>
      <trkpt lat="48.27214" lon="7.15709">
        <ele>847</ele>
        <time>2026-07-09T16:01:25.000Z</time>
      </trkpt>
      <trkpt lat="48.27212" lon="7.15692">
        <ele>847</ele>
        <time>2026-07-09T16:01:38.000Z</time>
      </trkpt>
      <trkpt lat="48.27239" lon="7.15625">
        <ele>848</ele>
        <time>2026-07-09T16:02:48.000Z</time>
      </trkpt>
      <trkpt lat="48.27252" lon="7.15547">
        <ele>850</ele>
        <time>2026-07-09T16:04:10.000Z</time>
      </trkpt>
      <trkpt lat="48.27262" lon="7.15432">
        <ele>851</ele>
        <time>2026-07-09T16:05:48.000Z</time>
      </trkpt>
      <trkpt lat="48.27254" lon="7.15428">
        <ele>850</ele>
        <time>2026-07-09T16:05:58.000Z</time>
      </trkpt>
      <trkpt lat="48.27172" lon="7.15422">
        <ele>843</ele>
        <time>2026-07-09T16:07:32.000Z</time>
      </trkpt>
      <trkpt lat="48.27138" lon="7.15413">
        <ele>837</ele>
        <time>2026-07-09T16:08:12.000Z</time>
      </trkpt>
      <trkpt lat="48.27124" lon="7.15399">
        <ele>835</ele>
        <time>2026-07-09T16:08:31.000Z</time>
      </trkpt>
      <trkpt lat="48.271" lon="7.15359">
        <ele>830</ele>
        <time>2026-07-09T16:09:12.000Z</time>
      </trkpt>
      <trkpt lat="48.27093" lon="7.15329">
        <ele>827</ele>
        <time>2026-07-09T16:09:36.000Z</time>
      </trkpt>
      <trkpt lat="48.2708" lon="7.1524">
        <ele>819</ele>
        <time>2026-07-09T16:10:46.000Z</time>
      </trkpt>
      <trkpt lat="48.27066" lon="7.15199">
        <ele>814</ele>
        <time>2026-07-09T16:11:21.000Z</time>
      </trkpt>
      <trkpt lat="48.27045" lon="7.1515">
        <ele>810</ele>
        <time>2026-07-09T16:12:05.000Z</time>
      </trkpt>
      <trkpt lat="48.2702" lon="7.15134">
        <ele>809</ele>
        <time>2026-07-09T16:12:36.000Z</time>
      </trkpt>
      <trkpt lat="48.27011" lon="7.15118">
        <ele>807</ele>
        <time>2026-07-09T16:12:52.000Z</time>
      </trkpt>
      <trkpt lat="48.2701" lon="7.15098">
        <ele>807</ele>
        <time>2026-07-09T16:13:07.000Z</time>
      </trkpt>
      <trkpt lat="48.27047" lon="7.15046">
        <ele>801</ele>
        <time>2026-07-09T16:14:05.000Z</time>
      </trkpt>
      <trkpt lat="48.27058" lon="7.15005">
        <ele>797</ele>
        <time>2026-07-09T16:14:39.000Z</time>
      </trkpt>
      <trkpt lat="48.27063" lon="7.14896">
        <ele>789</ele>
        <time>2026-07-09T16:16:02.000Z</time>
      </trkpt>
      <trkpt lat="48.2706" lon="7.14828">
        <ele>785</ele>
        <time>2026-07-09T16:16:54.000Z</time>
      </trkpt>
      <trkpt lat="48.27062" lon="7.14765">
        <ele>779</ele>
        <time>2026-07-09T16:17:42.000Z</time>
      </trkpt>
      <trkpt lat="48.27051" lon="7.14686">
        <ele>777</ele>
        <time>2026-07-09T16:18:44.000Z</time>
      </trkpt>
      <trkpt lat="48.27043" lon="7.14664">
        <ele>777</ele>
        <time>2026-07-09T16:19:03.000Z</time>
      </trkpt>
      <trkpt lat="48.27015" lon="7.14617">
        <ele>773</ele>
        <time>2026-07-09T16:19:51.000Z</time>
      </trkpt>
      <trkpt lat="48.26955" lon="7.14529">
        <ele>771</ele>
        <time>2026-07-09T16:21:27.000Z</time>
      </trkpt>
      <trkpt lat="48.26943" lon="7.14494">
        <ele>770</ele>
        <time>2026-07-09T16:21:57.000Z</time>
      </trkpt>
      <trkpt lat="48.2695" lon="7.14471">
        <ele>768</ele>
        <time>2026-07-09T16:22:16.000Z</time>
      </trkpt>
      <trkpt lat="48.26969" lon="7.14434">
        <ele>768</ele>
        <time>2026-07-09T16:22:52.000Z</time>
      </trkpt>
      <trkpt lat="48.26971" lon="7.14415">
        <ele>767</ele>
        <time>2026-07-09T16:23:06.000Z</time>
      </trkpt>
      <trkpt lat="48.26967" lon="7.14392">
        <ele>767</ele>
        <time>2026-07-09T16:23:24.000Z</time>
      </trkpt>
      <trkpt lat="48.26924" lon="7.14231">
        <ele>758</ele>
        <time>2026-07-09T16:25:37.000Z</time>
      </trkpt>
      <trkpt lat="48.26911" lon="7.14175">
        <ele>758</ele>
        <time>2026-07-09T16:26:22.000Z</time>
      </trkpt>
      <trkpt lat="48.26906" lon="7.14119">
        <ele>757</ele>
        <time>2026-07-09T16:27:06.000Z</time>
      </trkpt>
      <trkpt lat="48.26906" lon="7.14119">
        <ele>757</ele>
        <time>2026-07-09T16:27:06.000Z</time>
      </trkpt>
      <trkpt lat="48.26904" lon="7.14066">
        <ele>754</ele>
        <time>2026-07-09T16:27:46.000Z</time>
      </trkpt>
      <trkpt lat="48.26902" lon="7.14014">
        <ele>753</ele>
        <time>2026-07-09T16:28:26.000Z</time>
      </trkpt>
      <trkpt lat="48.26898" lon="7.13958">
        <ele>751</ele>
        <time>2026-07-09T16:29:09.000Z</time>
      </trkpt>
      <trkpt lat="48.26895" lon="7.13902">
        <ele>750</ele>
        <time>2026-07-09T16:29:52.000Z</time>
      </trkpt>
      <trkpt lat="48.26891" lon="7.13847">
        <ele>748</ele>
        <time>2026-07-09T16:30:35.000Z</time>
      </trkpt>
      <trkpt lat="48.26875" lon="7.13797">
        <ele>748</ele>
        <time>2026-07-09T16:31:17.000Z</time>
      </trkpt>
      <trkpt lat="48.26859" lon="7.13747">
        <ele>746</ele>
        <time>2026-07-09T16:31:59.000Z</time>
      </trkpt>
      <trkpt lat="48.26841" lon="7.13712">
        <ele>745</ele>
        <time>2026-07-09T16:32:33.000Z</time>
      </trkpt>
      <trkpt lat="48.26833" lon="7.137">
        <ele>744</ele>
        <time>2026-07-09T16:32:45.000Z</time>
      </trkpt>
      <trkpt lat="48.26824" lon="7.13695">
        <ele>745</ele>
        <time>2026-07-09T16:33:06.000Z</time>
      </trkpt>
      <trkpt lat="48.26815" lon="7.13695">
        <ele>744</ele>
        <time>2026-07-09T16:33:16.000Z</time>
      </trkpt>
      <trkpt lat="48.26795" lon="7.13716">
        <ele>744</ele>
        <time>2026-07-09T16:33:44.000Z</time>
      </trkpt>
      <trkpt lat="48.26771" lon="7.13764">
        <ele>743</ele>
        <time>2026-07-09T16:34:30.000Z</time>
      </trkpt>
      <trkpt lat="48.26748" lon="7.13812">
        <ele>741</ele>
        <time>2026-07-09T16:35:16.000Z</time>
      </trkpt>
      <trkpt lat="48.26726" lon="7.13844">
        <ele>740</ele>
        <time>2026-07-09T16:35:50.000Z</time>
      </trkpt>
      <trkpt lat="48.26704" lon="7.13875">
        <ele>740</ele>
        <time>2026-07-09T16:36:24.000Z</time>
      </trkpt>
      <trkpt lat="48.26678" lon="7.13905">
        <ele>739</ele>
        <time>2026-07-09T16:37:02.000Z</time>
      </trkpt>
      <trkpt lat="48.26651" lon="7.13927">
        <ele>738</ele>
        <time>2026-07-09T16:37:37.000Z</time>
      </trkpt>
      <trkpt lat="48.26624" lon="7.13949">
        <ele>737</ele>
        <time>2026-07-09T16:38:12.000Z</time>
      </trkpt>
      <trkpt lat="48.26591" lon="7.13967">
        <ele>736</ele>
        <time>2026-07-09T16:38:52.000Z</time>
      </trkpt>
      <trkpt lat="48.26557" lon="7.13978">
        <ele>736</ele>
        <time>2026-07-09T16:39:31.000Z</time>
      </trkpt>
      <trkpt lat="48.26519" lon="7.13988">
        <ele>734</ele>
        <time>2026-07-09T16:40:16.000Z</time>
      </trkpt>
      <trkpt lat="48.26498" lon="7.13989">
        <ele>733</ele>
        <time>2026-07-09T16:40:40.000Z</time>
      </trkpt>
      <trkpt lat="48.26479" lon="7.13985">
        <ele>733</ele>
        <time>2026-07-09T16:41:01.000Z</time>
      </trkpt>
      <trkpt lat="48.26464" lon="7.13973">
        <ele>733</ele>
        <time>2026-07-09T16:41:21.000Z</time>
      </trkpt>
      <trkpt lat="48.26446" lon="7.13944">
        <ele>732</ele>
        <time>2026-07-09T16:41:51.000Z</time>
      </trkpt>
      <trkpt lat="48.26443" lon="7.13909">
        <ele>731</ele>
        <time>2026-07-09T16:42:18.000Z</time>
      </trkpt>
      <trkpt lat="48.26445" lon="7.13895">
        <ele>732</ele>
        <time>2026-07-09T16:42:39.000Z</time>
      </trkpt>
      <trkpt lat="48.26463" lon="7.13859">
        <ele>730</ele>
        <time>2026-07-09T16:43:14.000Z</time>
      </trkpt>
      <trkpt lat="48.26481" lon="7.13822">
        <ele>732</ele>
        <time>2026-07-09T16:44:09.000Z</time>
      </trkpt>
      <trkpt lat="48.26502" lon="7.13774">
        <ele>732</ele>
        <time>2026-07-09T16:44:53.000Z</time>
      </trkpt>
      <trkpt lat="48.26505" lon="7.13758">
        <ele>732</ele>
        <time>2026-07-09T16:45:05.000Z</time>
      </trkpt>
      <trkpt lat="48.26501" lon="7.13731">
        <ele>732</ele>
        <time>2026-07-09T16:45:26.000Z</time>
      </trkpt>
      <trkpt lat="48.26483" lon="7.13698">
        <ele>732</ele>
        <time>2026-07-09T16:45:58.000Z</time>
      </trkpt>
      <trkpt lat="48.26466" lon="7.13664">
        <ele>731</ele>
        <time>2026-07-09T16:46:30.000Z</time>
      </trkpt>
      <trkpt lat="48.26454" lon="7.1365">
        <ele>731</ele>
        <time>2026-07-09T16:46:47.000Z</time>
      </trkpt>
      <trkpt lat="48.26425" lon="7.13631">
        <ele>730</ele>
        <time>2026-07-09T16:47:24.000Z</time>
      </trkpt>
      <trkpt lat="48.26401" lon="7.13631">
        <ele>732</ele>
        <time>2026-07-09T16:48:11.000Z</time>
      </trkpt>
      <trkpt lat="48.26378" lon="7.1363">
        <ele>731</ele>
        <time>2026-07-09T16:48:37.000Z</time>
      </trkpt>
      <trkpt lat="48.26335" lon="7.13637">
        <ele>731</ele>
        <time>2026-07-09T16:49:27.000Z</time>
      </trkpt>
      <trkpt lat="48.26291" lon="7.13644">
        <ele>731</ele>
        <time>2026-07-09T16:50:17.000Z</time>
      </trkpt>
      <trkpt lat="48.26247" lon="7.13651">
        <ele>730</ele>
        <time>2026-07-09T16:51:07.000Z</time>
      </trkpt>
      <trkpt lat="48.26204" lon="7.13658">
        <ele>730</ele>
        <time>2026-07-09T16:51:57.000Z</time>
      </trkpt>
      <trkpt lat="48.2618" lon="7.1365">
        <ele>730</ele>
        <time>2026-07-09T16:52:25.000Z</time>
      </trkpt>
      <trkpt lat="48.26157" lon="7.13643">
        <ele>730</ele>
        <time>2026-07-09T16:52:53.000Z</time>
      </trkpt>
      <trkpt lat="48.26144" lon="7.13635">
        <ele>730</ele>
        <time>2026-07-09T16:53:09.000Z</time>
      </trkpt>
      <trkpt lat="48.26136" lon="7.13623">
        <ele>731</ele>
        <time>2026-07-09T16:53:32.000Z</time>
      </trkpt>
      <trkpt lat="48.26137" lon="7.13571">
        <ele>730</ele>
        <time>2026-07-09T16:54:11.000Z</time>
      </trkpt>
      <trkpt lat="48.26144" lon="7.13534">
        <ele>729</ele>
        <time>2026-07-09T16:54:40.000Z</time>
      </trkpt>
      <trkpt lat="48.26151" lon="7.13497">
        <ele>731</ele>
        <time>2026-07-09T16:55:30.000Z</time>
      </trkpt>
      <trkpt lat="48.26168" lon="7.13452">
        <ele>731</ele>
        <time>2026-07-09T16:56:10.000Z</time>
      </trkpt>
      <trkpt lat="48.26185" lon="7.13406">
        <ele>730</ele>
        <time>2026-07-09T16:56:50.000Z</time>
      </trkpt>
      <trkpt lat="48.26203" lon="7.13365">
        <ele>729</ele>
        <time>2026-07-09T16:57:28.000Z</time>
      </trkpt>
      <trkpt lat="48.26221" lon="7.13324">
        <ele>729</ele>
        <time>2026-07-09T16:58:06.000Z</time>
      </trkpt>
      <trkpt lat="48.26227" lon="7.13296">
        <ele>730</ele>
        <time>2026-07-09T16:58:38.000Z</time>
      </trkpt>
      <trkpt lat="48.26229" lon="7.13268">
        <ele>730</ele>
        <time>2026-07-09T16:59:00.000Z</time>
      </trkpt>
      <trkpt lat="48.26225" lon="7.13214">
        <ele>730</ele>
        <time>2026-07-09T16:59:41.000Z</time>
      </trkpt>
      <trkpt lat="48.2622" lon="7.13199">
        <ele>729</ele>
        <time>2026-07-09T16:59:54.000Z</time>
      </trkpt>
      <trkpt lat="48.26194" lon="7.13162">
        <ele>729</ele>
        <time>2026-07-09T17:00:35.000Z</time>
      </trkpt>
      <trkpt lat="48.26168" lon="7.13124">
        <ele>729</ele>
        <time>2026-07-09T17:01:16.000Z</time>
      </trkpt>
      <trkpt lat="48.2614" lon="7.13075">
        <ele>729</ele>
        <time>2026-07-09T17:02:06.000Z</time>
      </trkpt>
      <trkpt lat="48.26117" lon="7.13017">
        <ele>729</ele>
        <time>2026-07-09T17:02:57.000Z</time>
      </trkpt>
      <trkpt lat="48.26108" lon="7.12988">
        <ele>729</ele>
        <time>2026-07-09T17:03:22.000Z</time>
      </trkpt>
      <trkpt lat="48.26104" lon="7.12933">
        <ele>729</ele>
        <time>2026-07-09T17:04:04.000Z</time>
      </trkpt>
      <trkpt lat="48.26108" lon="7.12892">
        <ele>728</ele>
        <time>2026-07-09T17:04:35.000Z</time>
      </trkpt>
      <trkpt lat="48.26114" lon="7.12859">
        <ele>729</ele>
        <time>2026-07-09T17:05:11.000Z</time>
      </trkpt>
      <trkpt lat="48.26121" lon="7.12826">
        <ele>728</ele>
        <time>2026-07-09T17:05:37.000Z</time>
      </trkpt>
      <trkpt lat="48.26119" lon="7.12765">
        <ele>729</ele>
        <time>2026-07-09T17:06:34.000Z</time>
      </trkpt>
      <trkpt lat="48.26109" lon="7.12734">
        <ele>729</ele>
        <time>2026-07-09T17:07:00.000Z</time>
      </trkpt>
      <trkpt lat="48.26091" lon="7.12697">
        <ele>727</ele>
        <time>2026-07-09T17:07:36.000Z</time>
      </trkpt>
      <trkpt lat="48.26072" lon="7.1266">
        <ele>728</ele>
        <time>2026-07-09T17:08:22.000Z</time>
      </trkpt>
      <trkpt lat="48.26052" lon="7.12631">
        <ele>729</ele>
        <time>2026-07-09T17:09:04.000Z</time>
      </trkpt>
      <trkpt lat="48.26033" lon="7.12602">
        <ele>727</ele>
        <time>2026-07-09T17:09:35.000Z</time>
      </trkpt>
      <trkpt lat="48.26011" lon="7.1258">
        <ele>728</ele>
        <time>2026-07-09T17:10:15.000Z</time>
      </trkpt>
      <trkpt lat="48.2599" lon="7.12557">
        <ele>728</ele>
        <time>2026-07-09T17:10:45.000Z</time>
      </trkpt>
      <trkpt lat="48.25975" lon="7.1255">
        <ele>728</ele>
        <time>2026-07-09T17:11:03.000Z</time>
      </trkpt>
      <trkpt lat="48.25948" lon="7.12548">
        <ele>728</ele>
        <time>2026-07-09T17:11:34.000Z</time>
      </trkpt>
      <trkpt lat="48.25936" lon="7.12555">
        <ele>728</ele>
        <time>2026-07-09T17:11:49.000Z</time>
      </trkpt>
      <trkpt lat="48.25915" lon="7.12585">
        <ele>730</ele>
        <time>2026-07-09T17:12:43.000Z</time>
      </trkpt>
      <trkpt lat="48.25896" lon="7.12626">
        <ele>730</ele>
        <time>2026-07-09T17:13:21.000Z</time>
      </trkpt>
      <trkpt lat="48.25877" lon="7.12667">
        <ele>728</ele>
        <time>2026-07-09T17:13:59.000Z</time>
      </trkpt>
      <trkpt lat="48.25858" lon="7.12708">
        <ele>728</ele>
        <time>2026-07-09T17:14:37.000Z</time>
      </trkpt>
      <trkpt lat="48.25836" lon="7.12749">
        <ele>728</ele>
        <time>2026-07-09T17:15:17.000Z</time>
      </trkpt>
      <trkpt lat="48.25815" lon="7.1279">
        <ele>728</ele>
        <time>2026-07-09T17:15:57.000Z</time>
      </trkpt>
      <trkpt lat="48.25805" lon="7.12838">
        <ele>728</ele>
        <time>2026-07-09T17:16:35.000Z</time>
      </trkpt>
      <trkpt lat="48.258" lon="7.12896">
        <ele>728</ele>
        <time>2026-07-09T17:17:20.000Z</time>
      </trkpt>
      <trkpt lat="48.25796" lon="7.12937">
        <ele>728</ele>
        <time>2026-07-09T17:17:52.000Z</time>
      </trkpt>
      <trkpt lat="48.25792" lon="7.12979">
        <ele>729</ele>
        <time>2026-07-09T17:18:34.000Z</time>
      </trkpt>
      <trkpt lat="48.25785" lon="7.13013">
        <ele>729</ele>
        <time>2026-07-09T17:19:01.000Z</time>
      </trkpt>
      <trkpt lat="48.25772" lon="7.13053">
        <ele>727</ele>
        <time>2026-07-09T17:19:35.000Z</time>
      </trkpt>
      <trkpt lat="48.25766" lon="7.13087">
        <ele>728</ele>
        <time>2026-07-09T17:20:12.000Z</time>
      </trkpt>
      <trkpt lat="48.2576" lon="7.13122">
        <ele>728</ele>
        <time>2026-07-09T17:20:39.000Z</time>
      </trkpt>
      <trkpt lat="48.2576" lon="7.13156">
        <ele>728</ele>
        <time>2026-07-09T17:21:05.000Z</time>
      </trkpt>
      <trkpt lat="48.25763" lon="7.1319">
        <ele>728</ele>
        <time>2026-07-09T17:21:32.000Z</time>
      </trkpt>
      <trkpt lat="48.25766" lon="7.13225">
        <ele>728</ele>
        <time>2026-07-09T17:21:59.000Z</time>
      </trkpt>
      <trkpt lat="48.25764" lon="7.13241">
        <ele>728</ele>
        <time>2026-07-09T17:22:11.000Z</time>
      </trkpt>
      <trkpt lat="48.25748" lon="7.1328">
        <ele>725</ele>
        <time>2026-07-09T17:22:46.000Z</time>
      </trkpt>
      <trkpt lat="48.25732" lon="7.13319">
        <ele>724</ele>
        <time>2026-07-09T17:23:21.000Z</time>
      </trkpt>
      <trkpt lat="48.25716" lon="7.13357">
        <ele>724</ele>
        <time>2026-07-09T17:23:56.000Z</time>
      </trkpt>
      <trkpt lat="48.25698" lon="7.13396">
        <ele>720</ele>
        <time>2026-07-09T17:24:32.000Z</time>
      </trkpt>
      <trkpt lat="48.25679" lon="7.13434">
        <ele>719</ele>
        <time>2026-07-09T17:25:08.000Z</time>
      </trkpt>
      <trkpt lat="48.25663" lon="7.13464">
        <ele>719</ele>
        <time>2026-07-09T17:25:38.000Z</time>
      </trkpt>
      <trkpt lat="48.25646" lon="7.13494">
        <ele>716</ele>
        <time>2026-07-09T17:26:08.000Z</time>
      </trkpt>
      <trkpt lat="48.25636" lon="7.13508">
        <ele>715</ele>
        <time>2026-07-09T17:26:24.000Z</time>
      </trkpt>
      <trkpt lat="48.25622" lon="7.13518">
        <ele>714</ele>
        <time>2026-07-09T17:26:41.000Z</time>
      </trkpt>
      <trkpt lat="48.25622" lon="7.1353">
        <ele>715</ele>
        <time>2026-07-09T17:27:01.000Z</time>
      </trkpt>
      <trkpt lat="48.25622" lon="7.13518">
        <ele>714</ele>
        <time>2026-07-09T17:27:10.000Z</time>
      </trkpt>
      <trkpt lat="48.25612" lon="7.13522">
        <ele>713</ele>
        <time>2026-07-09T17:27:22.000Z</time>
      </trkpt>
      <trkpt lat="48.25599" lon="7.1352">
        <ele>713</ele>
        <time>2026-07-09T17:27:37.000Z</time>
      </trkpt>
      <trkpt lat="48.25561" lon="7.13496">
        <ele>711</ele>
        <time>2026-07-09T17:28:24.000Z</time>
      </trkpt>
      <trkpt lat="48.25537" lon="7.13463">
        <ele>710</ele>
        <time>2026-07-09T17:29:01.000Z</time>
      </trkpt>
      <trkpt lat="48.25513" lon="7.13431">
        <ele>712</ele>
        <time>2026-07-09T17:29:58.000Z</time>
      </trkpt>
      <trkpt lat="48.25486" lon="7.1341">
        <ele>710</ele>
        <time>2026-07-09T17:30:33.000Z</time>
      </trkpt>
      <trkpt lat="48.25469" lon="7.13406">
        <ele>710</ele>
        <time>2026-07-09T17:30:53.000Z</time>
      </trkpt>
      <trkpt lat="48.25454" lon="7.13409">
        <ele>710</ele>
        <time>2026-07-09T17:31:10.000Z</time>
      </trkpt>
      <trkpt lat="48.25423" lon="7.13425">
        <ele>709</ele>
        <time>2026-07-09T17:31:47.000Z</time>
      </trkpt>
      <trkpt lat="48.25395" lon="7.13418">
        <ele>707</ele>
        <time>2026-07-09T17:32:20.000Z</time>
      </trkpt>
      <trkpt lat="48.25366" lon="7.13411">
        <ele>706</ele>
        <time>2026-07-09T17:32:53.000Z</time>
      </trkpt>
      <trkpt lat="48.25322" lon="7.13415">
        <ele>702</ele>
        <time>2026-07-09T17:33:44.000Z</time>
      </trkpt>
      <trkpt lat="48.25311" lon="7.13409">
        <ele>703</ele>
        <time>2026-07-09T17:34:07.000Z</time>
      </trkpt>
      <trkpt lat="48.25293" lon="7.13379">
        <ele>699</ele>
        <time>2026-07-09T17:34:38.000Z</time>
      </trkpt>
      <trkpt lat="48.25275" lon="7.13349">
        <ele>699</ele>
        <time>2026-07-09T17:35:09.000Z</time>
      </trkpt>
      <trkpt lat="48.25254" lon="7.13322">
        <ele>697</ele>
        <time>2026-07-09T17:35:41.000Z</time>
      </trkpt>
      <trkpt lat="48.25242" lon="7.13301">
        <ele>697</ele>
        <time>2026-07-09T17:36:02.000Z</time>
      </trkpt>
      <trkpt lat="48.25239" lon="7.13285">
        <ele>695</ele>
        <time>2026-07-09T17:36:14.000Z</time>
      </trkpt>
      <trkpt lat="48.25242" lon="7.13236">
        <ele>695</ele>
        <time>2026-07-09T17:36:52.000Z</time>
      </trkpt>
      <trkpt lat="48.25244" lon="7.13186">
        <ele>692</ele>
        <time>2026-07-09T17:37:30.000Z</time>
      </trkpt>
      <trkpt lat="48.25265" lon="7.13136">
        <ele>693</ele>
        <time>2026-07-09T17:38:25.000Z</time>
      </trkpt>
      <trkpt lat="48.25285" lon="7.13087">
        <ele>690</ele>
        <time>2026-07-09T17:39:09.000Z</time>
      </trkpt>
      <trkpt lat="48.25299" lon="7.1303">
        <ele>687</ele>
        <time>2026-07-09T17:39:55.000Z</time>
      </trkpt>
      <trkpt lat="48.25299" lon="7.12968">
        <ele>683</ele>
        <time>2026-07-09T17:40:42.000Z</time>
      </trkpt>
      <trkpt lat="48.25274" lon="7.13016">
        <ele>695</ele>
        <time>2026-07-09T17:43:32.000Z</time>
      </trkpt>
      <trkpt lat="48.25255" lon="7.13003">
        <ele>701</ele>
        <time>2026-07-09T17:44:58.000Z</time>
      </trkpt>
      <trkpt lat="48.2524" lon="7.12975">
        <ele>699</ele>
        <time>2026-07-09T17:45:25.000Z</time>
      </trkpt>
      <trkpt lat="48.25215" lon="7.12965">
        <ele>702</ele>
        <time>2026-07-09T17:46:25.000Z</time>
      </trkpt>
      <trkpt lat="48.25191" lon="7.12941">
        <ele>702</ele>
        <time>2026-07-09T17:46:59.000Z</time>
      </trkpt>
      <trkpt lat="48.25166" lon="7.12917">
        <ele>703</ele>
        <time>2026-07-09T17:47:43.000Z</time>
      </trkpt>
      <trkpt lat="48.25134" lon="7.12892">
        <ele>707</ele>
        <time>2026-07-09T17:49:05.000Z</time>
      </trkpt>
      <trkpt lat="48.25098" lon="7.12888">
        <ele>715</ele>
        <time>2026-07-09T17:51:08.000Z</time>
      </trkpt>
      <trkpt lat="48.25073" lon="7.12906">
        <ele>725</ele>
        <time>2026-07-09T17:53:23.000Z</time>
      </trkpt>
      <trkpt lat="48.25047" lon="7.12924">
        <ele>734</ele>
        <time>2026-07-09T17:55:28.000Z</time>
      </trkpt>
      <trkpt lat="48.25018" lon="7.12934">
        <ele>741</ele>
        <time>2026-07-09T17:57:14.000Z</time>
      </trkpt>
      <trkpt lat="48.24982" lon="7.1293">
        <ele>746</ele>
        <time>2026-07-09T17:58:47.000Z</time>
      </trkpt>
      <trkpt lat="48.24941" lon="7.12914">
        <ele>755</ele>
        <time>2026-07-09T18:01:08.000Z</time>
      </trkpt>
      <trkpt lat="48.24919" lon="7.12911">
        <ele>758</ele>
        <time>2026-07-09T18:02:04.000Z</time>
      </trkpt>
      <trkpt lat="48.24898" lon="7.12909">
        <ele>760</ele>
        <time>2026-07-09T18:02:49.000Z</time>
      </trkpt>
      <trkpt lat="48.24872" lon="7.12919">
        <ele>762</ele>
        <time>2026-07-09T18:03:40.000Z</time>
      </trkpt>
      <trkpt lat="48.24847" lon="7.1293">
        <ele>762</ele>
        <time>2026-07-09T18:04:10.000Z</time>
      </trkpt>
      <trkpt lat="48.24826" lon="7.1295">
        <ele>765</ele>
        <time>2026-07-09T18:05:10.000Z</time>
      </trkpt>
      <trkpt lat="48.24805" lon="7.12971">
        <ele>769</ele>
        <time>2026-07-09T18:06:20.000Z</time>
      </trkpt>
      <trkpt lat="48.24783" lon="7.13002">
        <ele>773</ele>
        <time>2026-07-09T18:07:35.000Z</time>
      </trkpt>
      <trkpt lat="48.24761" lon="7.13033">
        <ele>777</ele>
        <time>2026-07-09T18:08:50.000Z</time>
      </trkpt>
      <trkpt lat="48.24739" lon="7.13059">
        <ele>781</ele>
        <time>2026-07-09T18:10:03.000Z</time>
      </trkpt>
      <trkpt lat="48.24717" lon="7.13085">
        <ele>783</ele>
        <time>2026-07-09T18:10:56.000Z</time>
      </trkpt>
      <trkpt lat="48.24688" lon="7.13113">
        <ele>788</ele>
        <time>2026-07-09T18:12:28.000Z</time>
      </trkpt>
      <trkpt lat="48.24665" lon="7.13127">
        <ele>784</ele>
        <time>2026-07-09T18:12:56.000Z</time>
      </trkpt>
      <trkpt lat="48.24642" lon="7.1314">
        <ele>783</ele>
        <time>2026-07-09T18:13:24.000Z</time>
      </trkpt>
      <trkpt lat="48.2462" lon="7.13166">
        <ele>788</ele>
        <time>2026-07-09T18:14:48.000Z</time>
      </trkpt>
      <trkpt lat="48.24597" lon="7.13192">
        <ele>792</ele>
        <time>2026-07-09T18:16:02.000Z</time>
      </trkpt>
      <trkpt lat="48.24571" lon="7.13216">
        <ele>794</ele>
        <time>2026-07-09T18:16:58.000Z</time>
      </trkpt>
      <trkpt lat="48.24544" lon="7.13239">
        <ele>798</ele>
        <time>2026-07-09T18:18:14.000Z</time>
      </trkpt>
      <trkpt lat="48.24536" lon="7.1324">
        <ele>796</ele>
        <time>2026-07-09T18:18:24.000Z</time>
      </trkpt>
      <trkpt lat="48.24496" lon="7.13243">
        <ele>792</ele>
        <time>2026-07-09T18:19:10.000Z</time>
      </trkpt>
      <trkpt lat="48.24456" lon="7.13246">
        <ele>786</ele>
        <time>2026-07-09T18:19:56.000Z</time>
      </trkpt>
      <trkpt lat="48.24416" lon="7.13249">
        <ele>780</ele>
        <time>2026-07-09T18:20:42.000Z</time>
      </trkpt>
      <trkpt lat="48.24396" lon="7.13255">
        <ele>776</ele>
        <time>2026-07-09T18:21:06.000Z</time>
      </trkpt>
      <trkpt lat="48.24375" lon="7.13276">
        <ele>774</ele>
        <time>2026-07-09T18:21:34.000Z</time>
      </trkpt>
      <trkpt lat="48.24354" lon="7.13296">
        <ele>772</ele>
        <time>2026-07-09T18:22:02.000Z</time>
      </trkpt>
      <trkpt lat="48.24336" lon="7.13296">
        <ele>771</ele>
        <time>2026-07-09T18:22:24.000Z</time>
      </trkpt>
      <trkpt lat="48.24334" lon="7.13282">
        <ele>771</ele>
        <time>2026-07-09T18:22:35.000Z</time>
      </trkpt>
      <trkpt lat="48.24316" lon="7.13286">
        <ele>771</ele>
        <time>2026-07-09T18:22:55.000Z</time>
      </trkpt>
      <trkpt lat="48.24279" lon="7.13316">
        <ele>772</ele>
        <time>2026-07-09T18:23:54.000Z</time>
      </trkpt>
      <trkpt lat="48.24253" lon="7.13347">
        <ele>773</ele>
        <time>2026-07-09T18:24:42.000Z</time>
      </trkpt>
      <trkpt lat="48.24228" lon="7.13359">
        <ele>774</ele>
        <time>2026-07-09T18:25:23.000Z</time>
      </trkpt>
      <trkpt lat="48.24213" lon="7.1342">
        <ele>771</ele>
        <time>2026-07-09T18:26:12.000Z</time>
      </trkpt>
      <trkpt lat="48.24217" lon="7.13413">
        <ele>771</ele>
        <time>2026-07-09T18:26:18.000Z</time>
      </trkpt>
      <trkpt lat="48.24251" lon="7.13435">
        <ele>769</ele>
        <time>2026-07-09T18:27:01.000Z</time>
      </trkpt>
      <trkpt lat="48.24292" lon="7.13447">
        <ele>765</ele>
        <time>2026-07-09T18:27:49.000Z</time>
      </trkpt>
      <trkpt lat="48.24316" lon="7.13446">
        <ele>762</ele>
        <time>2026-07-09T18:28:16.000Z</time>
      </trkpt>
      <trkpt lat="48.24332" lon="7.13452">
        <ele>760</ele>
        <time>2026-07-09T18:28:35.000Z</time>
      </trkpt>
      <trkpt lat="48.24342" lon="7.13469">
        <ele>757</ele>
        <time>2026-07-09T18:28:53.000Z</time>
      </trkpt>
      <trkpt lat="48.24343" lon="7.1353">
        <ele>752</ele>
        <time>2026-07-09T18:29:39.000Z</time>
      </trkpt>
      <trkpt lat="48.2434" lon="7.13551">
        <ele>748</ele>
        <time>2026-07-09T18:29:55.000Z</time>
      </trkpt>
      <trkpt lat="48.24333" lon="7.1356">
        <ele>746</ele>
        <time>2026-07-09T18:30:06.000Z</time>
      </trkpt>
      <trkpt lat="48.24303" lon="7.13577">
        <ele>737</ele>
        <time>2026-07-09T18:30:43.000Z</time>
      </trkpt>
      <trkpt lat="48.24281" lon="7.13598">
        <ele>732</ele>
        <time>2026-07-09T18:31:12.000Z</time>
      </trkpt>
      <trkpt lat="48.24253" lon="7.1364">
        <ele>725</ele>
        <time>2026-07-09T18:31:58.000Z</time>
      </trkpt>
      <trkpt lat="48.24233" lon="7.13661">
        <ele>722</ele>
        <time>2026-07-09T18:32:26.000Z</time>
      </trkpt>
      <trkpt lat="48.24193" lon="7.13692">
        <ele>719</ele>
        <time>2026-07-09T18:33:17.000Z</time>
      </trkpt>
      <trkpt lat="48.24153" lon="7.13722">
        <ele>717</ele>
        <time>2026-07-09T18:34:08.000Z</time>
      </trkpt>
      <trkpt lat="48.24144" lon="7.13764">
        <ele>711</ele>
        <time>2026-07-09T18:34:42.000Z</time>
      </trkpt>
      <trkpt lat="48.24134" lon="7.13806">
        <ele>707</ele>
        <time>2026-07-09T18:35:16.000Z</time>
      </trkpt>
      <trkpt lat="48.2414" lon="7.13862">
        <ele>702</ele>
        <time>2026-07-09T18:36:00.000Z</time>
      </trkpt>
      <trkpt lat="48.24167" lon="7.13885">
        <ele>698</ele>
        <time>2026-07-09T18:36:36.000Z</time>
      </trkpt>
      <trkpt lat="48.24195" lon="7.13908">
        <ele>694</ele>
        <time>2026-07-09T18:37:12.000Z</time>
      </trkpt>
      <trkpt lat="48.24217" lon="7.13957">
        <ele>688</ele>
        <time>2026-07-09T18:37:57.000Z</time>
      </trkpt>
      <trkpt lat="48.24232" lon="7.14002">
        <ele>684</ele>
        <time>2026-07-09T18:38:36.000Z</time>
      </trkpt>
      <trkpt lat="48.24247" lon="7.14048">
        <ele>678</ele>
        <time>2026-07-09T18:39:15.000Z</time>
      </trkpt>
      <trkpt lat="48.24259" lon="7.14104">
        <ele>670</ele>
        <time>2026-07-09T18:40:00.000Z</time>
      </trkpt>
      <trkpt lat="48.24266" lon="7.14154">
        <ele>663</ele>
        <time>2026-07-09T18:40:39.000Z</time>
      </trkpt>
      <trkpt lat="48.24266" lon="7.14176">
        <ele>659</ele>
        <time>2026-07-09T18:40:56.000Z</time>
      </trkpt>
      <trkpt lat="48.24262" lon="7.14202">
        <ele>651</ele>
        <time>2026-07-09T18:41:17.000Z</time>
      </trkpt>
      <trkpt lat="48.24254" lon="7.14219">
        <ele>651</ele>
        <time>2026-07-09T18:41:33.000Z</time>
      </trkpt>
      <trkpt lat="48.24223" lon="7.14231">
        <ele>652</ele>
        <time>2026-07-09T18:42:19.000Z</time>
      </trkpt>
      <trkpt lat="48.24192" lon="7.14222">
        <ele>652</ele>
        <time>2026-07-09T18:42:56.000Z</time>
      </trkpt>
      <trkpt lat="48.24174" lon="7.14198">
        <ele>653</ele>
        <time>2026-07-09T18:43:34.000Z</time>
      </trkpt>
      <trkpt lat="48.24156" lon="7.14174">
        <ele>652</ele>
        <time>2026-07-09T18:44:02.000Z</time>
      </trkpt>
      <trkpt lat="48.24139" lon="7.14125">
        <ele>655</ele>
        <time>2026-07-09T18:45:15.000Z</time>
      </trkpt>
      <trkpt lat="48.24123" lon="7.14076">
        <ele>658</ele>
        <time>2026-07-09T18:46:28.000Z</time>
      </trkpt>
      <trkpt lat="48.24106" lon="7.14028">
        <ele>663</ele>
        <time>2026-07-09T18:48:01.000Z</time>
      </trkpt>
      <trkpt lat="48.24094" lon="7.14037">
        <ele>663</ele>
        <time>2026-07-09T18:48:17.000Z</time>
      </trkpt>
      <trkpt lat="48.24084" lon="7.14069">
        <ele>662</ele>
        <time>2026-07-09T18:48:44.000Z</time>
      </trkpt>
      <trkpt lat="48.24074" lon="7.141">
        <ele>656</ele>
        <time>2026-07-09T18:49:11.000Z</time>
      </trkpt>
      <trkpt lat="48.24056" lon="7.14127">
        <ele>654</ele>
        <time>2026-07-09T18:49:40.000Z</time>
      </trkpt>
      <trkpt lat="48.24028" lon="7.14142">
        <ele>649</ele>
        <time>2026-07-09T18:50:14.000Z</time>
      </trkpt>
      <trkpt lat="48.23999" lon="7.14156">
        <ele>645</ele>
        <time>2026-07-09T18:50:48.000Z</time>
      </trkpt>
      <trkpt lat="48.23975" lon="7.14163">
        <ele>642</ele>
        <time>2026-07-09T18:51:16.000Z</time>
      </trkpt>
      <trkpt lat="48.23951" lon="7.1417">
        <ele>639</ele>
        <time>2026-07-09T18:51:44.000Z</time>
      </trkpt>
      <trkpt lat="48.23933" lon="7.14189">
        <ele>638</ele>
        <time>2026-07-09T18:52:09.000Z</time>
      </trkpt>
      <trkpt lat="48.23917" lon="7.14227">
        <ele>634</ele>
        <time>2026-07-09T18:52:43.000Z</time>
      </trkpt>
      <trkpt lat="48.23944" lon="7.14203">
        <ele>632</ele>
        <time>2026-07-09T18:53:18.000Z</time>
      </trkpt>
      <trkpt lat="48.23951" lon="7.14201">
        <ele>631</ele>
        <time>2026-07-09T18:53:27.000Z</time>
      </trkpt>
      <trkpt lat="48.23994" lon="7.14199">
        <ele>631</ele>
        <time>2026-07-09T18:54:16.000Z</time>
      </trkpt>
      <trkpt lat="48.24036" lon="7.14197">
        <ele>626</ele>
        <time>2026-07-09T18:55:05.000Z</time>
      </trkpt>
      <trkpt lat="48.24069" lon="7.14211">
        <ele>622</ele>
        <time>2026-07-09T18:55:44.000Z</time>
      </trkpt>
      <trkpt lat="48.24102" lon="7.14224">
        <ele>618</ele>
        <time>2026-07-09T18:56:23.000Z</time>
      </trkpt>
      <trkpt lat="48.24108" lon="7.14234">
        <ele>618</ele>
        <time>2026-07-09T18:56:33.000Z</time>
      </trkpt>
      <trkpt lat="48.24105" lon="7.14247">
        <ele>616</ele>
        <time>2026-07-09T18:56:43.000Z</time>
      </trkpt>
      <trkpt lat="48.2409" lon="7.14241">
        <ele>613</ele>
        <time>2026-07-09T18:57:01.000Z</time>
      </trkpt>
    </trkseg>
  </trk>
</gpx>